| time (UTC) | temp F | wind direction | speed MPH | gust MPH | rain 1hr in | rain 24hr in | rain mn in | humidity % | barometer mb |
| 20260504031604 | 47 | 47 | 1.0 | 2.0 | 0.00 | 0.01 | 0.00 | 99 | 1015.6 |
| 20260504031524 | 47 | 46 | 1.0 | 2.0 | 0.00 | 0.01 | 0.00 | 99 | 1015.8 |
| 20260504031424 | 47 | 47 | 1.0 | 2.0 | 0.00 | 0.01 | 0.00 | 99 | 1015.4 |
| 20260504031324 | 47 | 43 | 1.0 | 2.0 | 0.00 | 0.01 | 0.00 | 99 | 1015.6 |
| 20260504031224 | 47 | 41 | 1.0 | 2.0 | 0.00 | 0.01 | 0.00 | 99 | 1015.5 |
| 20260504031103 | 47 | 41 | 1.0 | 2.0 | 0.00 | 0.02 | 0.00 | 99 | 1015.5 |
| 20260504031024 | 47 | 43 | 1.0 | 2.0 | 0.00 | 0.02 | 0.00 | 99 | 1015.6 |
| 20260504030903 | 47 | 46 | 1.0 | 3.0 | 0.00 | 0.02 | 0.00 | 99 | 1015.5 |
| 20260504030803 | 47 | 47 | 1.0 | 3.0 | 0.00 | 0.02 | 0.00 | 99 | 1015.5 |
| 20260504030703 | 47 | 50 | 1.0 | 3.0 | 0.00 | 0.02 | 0.00 | 99 | 1015.7 |
| 20260504030624 | 47 | 50 | 1.0 | 3.0 | 0.00 | 0.02 | 0.00 | 99 | 1015.7 |
| 20260504030503 | 47 | 52 | 1.0 | 3.0 | 0.00 | 0.02 | 0.00 | 99 | 1015.5 |
| 20260504030403 | 47 | 52 | 2.0 | 3.0 | 0.00 | 0.02 | 0.00 | 99 | 1015.6 |
| 20260504030303 | 47 | 52 | 2.0 | 3.0 | 0.00 | 0.02 | 0.00 | 99 | 1015.6 |
| 20260504030203 | 47 | 52 | 2.0 | 3.0 | 0.00 | 0.02 | 0.00 | 99 | 1015.7 |
| 20260504030104 | 47 | 52 | 2.0 | 3.0 | 0.00 | 0.02 | 0.00 | 99 | 1015.6 |
| 20260504030024 | 48 | 53 | 1.0 | 3.0 | 0.00 | 0.02 | 0.00 | 99 | 1015.6 |
| 20260504025924 | 48 | 53 | 1.0 | 3.0 | 0.00 | 0.02 | 0.00 | 99 | 1015.8 |
| 20260504025803 | 48 | 51 | 1.0 | 2.0 | 0.00 | 0.02 | 0.00 | 99 | 1015.6 |
| 20260504025703 | 48 | 49 | 1.0 | 2.0 | 0.00 | 0.02 | 0.00 | 99 | 1015.6 |
| 20260504025603 | 48 | 47 | 1.0 | 2.0 | 0.00 | 0.02 | 0.00 | 99 | 1015.8 |
| 20260504025503 | 48 | 50 | 1.0 | 3.0 | 0.00 | 0.02 | 0.00 | 99 | 1015.6 |
| 20260504025404 | 48 | 50 | 1.0 | 3.0 | 0.00 | 0.02 | 0.00 | 99 | 1015.7 |
| 20260504025304 | 48 | 49 | 1.0 | 3.0 | 0.00 | 0.02 | 0.00 | 99 | 1015.7 |
| 20260504025203 | 48 | 52 | 1.0 | 3.0 | 0.00 | 0.03 | 0.00 | 99 | 1015.5 |
| 20260504025104 | 48 | 54 | 1.0 | 3.0 | 0.00 | 0.03 | 0.00 | 99 | 1015.7 |
| 20260504025003 | 48 | 54 | 1.0 | 3.0 | 0.00 | 0.03 | 0.00 | 99 | 1015.8 |
| 20260504024903 | 48 | 55 | 1.0 | 3.0 | 0.00 | 0.03 | 0.00 | 99 | 1015.8 |
| 20260504024803 | 48 | 55 | 1.0 | 3.0 | 0.00 | 0.03 | 0.00 | 99 | 1015.8 |
| 20260504024703 | 48 | 55 | 1.0 | 3.0 | 0.00 | 0.03 | 0.00 | 99 | 1015.6 |
| 20260504024624 | 48 | 55 | 1.0 | 3.0 | 0.00 | 0.03 | 0.00 | 99 | 1015.7 |
| 20260504024503 | 48 | 55 | 1.0 | 3.0 | 0.00 | 0.03 | 0.00 | 99 | 1015.8 |
| 20260504024403 | 48 | 53 | 1.0 | 2.0 | 0.00 | 0.03 | 0.00 | 99 | 1015.7 |
| 20260504024325 | 48 | 52 | 1.0 | 2.0 | 0.00 | 0.04 | 0.00 | 99 | 1015.6 |
| 20260504024203 | 48 | 53 | 1.0 | 2.0 | 0.00 | 0.04 | 0.00 | 99 | 1015.8 |
| 20260504024103 | 48 | 50 | 1.0 | 2.0 | 0.00 | 0.04 | 0.00 | 99 | 1015.7 |
| 20260504024003 | 48 | 46 | 1.0 | 2.0 | 0.00 | 0.04 | 0.00 | 99 | 1015.6 |
| 20260504023903 | 48 | 45 | 1.0 | 2.0 | 0.00 | 0.04 | 0.00 | 99 | 1015.7 |
| 20260504023803 | 48 | 45 | 1.0 | 2.0 | 0.00 | 0.04 | 0.00 | 99 | 1015.6 |
| 20260504023703 | 48 | 45 | 1.0 | 2.0 | 0.00 | 0.04 | 0.00 | 99 | 1015.6 |
| 20260504023603 | 48 | 45 | 1.0 | 2.0 | 0.00 | 0.04 | 0.00 | 99 | 1015.8 |
| 20260504023503 | 48 | 46 | 1.0 | 2.0 | 0.00 | 0.04 | 0.00 | 99 | 1015.6 |
| 20260504023403 | 48 | 45 | 1.0 | 2.0 | 0.00 | 0.04 | 0.00 | 99 | 1015.7 |
| 20260504023303 | 48 | 43 | 1.0 | 2.0 | 0.00 | 0.04 | 0.00 | 99 | 1015.8 |
| 20260504023203 | 48 | 43 | 1.0 | 2.0 | 0.00 | 0.04 | 0.00 | 99 | 1015.8 |
| 20260504023103 | 48 | 44 | 1.0 | 2.0 | 0.00 | 0.04 | 0.00 | 99 | 1015.7 |
| 20260504023003 | 48 | 44 | 1.0 | 2.0 | 0.00 | 0.04 | 0.00 | 99 | 1015.6 |
| 20260504022903 | 48 | 44 | 1.0 | 2.0 | 0.00 | 0.04 | 0.00 | 99 | 1015.5 |
| 20260504022803 | 48 | 44 | 1.0 | 2.0 | 0.00 | 0.04 | 0.00 | 99 | 1015.7 |
| 20260504022703 | 48 | 46 | 1.0 | 2.0 | 0.00 | 0.04 | 0.00 | 99 | 1015.6 |
| 20260504022603 | 48 | 46 | 1.0 | 2.0 | 0.00 | 0.04 | 0.00 | 99 | 1015.8 |
| 20260504022503 | 48 | 45 | 1.0 | 2.0 | 0.00 | 0.04 | 0.00 | 99 | 1015.8 |
| 20260504022403 | 48 | 44 | 1.0 | 2.0 | 0.00 | 0.04 | 0.00 | 99 | 1015.8 |
| 20260504022304 | 48 | 44 | 1.0 | 2.0 | 0.00 | 0.04 | 0.00 | 99 | 1015.6 |
| 20260504022203 | 48 | 45 | 1.0 | 2.0 | 0.00 | 0.04 | 0.00 | 99 | 1015.9 |
| 20260504022103 | 48 | 45 | 1.0 | 2.0 | 0.00 | 0.04 | 0.00 | 99 | 1015.7 |
| 20260504022004 | 48 | 45 | 1.0 | 2.0 | 0.00 | 0.04 | 0.00 | 99 | 1015.8 |
| 20260504021903 | 48 | 45 | 1.0 | 2.0 | 0.00 | 0.04 | 0.00 | 99 | 1015.8 |
| 20260504021803 | 48 | 46 | 1.0 | 2.0 | 0.00 | 0.04 | 0.00 | 99 | 1015.7 |
| 20260504021703 | 48 | 46 | 1.0 | 2.0 | 0.00 | 0.04 | 0.00 | 99 | 1015.7 |
| 20260504021624 | 48 | 48 | 1.0 | 2.0 | 0.00 | 0.04 | 0.00 | 99 | 1015.8 |
| 20260504021503 | 48 | 51 | 1.0 | 2.0 | 0.00 | 0.04 | 0.00 | 99 | 1015.8 |
| 20260504021403 | 48 | 51 | 1.0 | 2.0 | 0.00 | 0.04 | 0.00 | 99 | 1015.7 |
| 20260504021303 | 48 | 51 | 1.0 | 2.0 | 0.00 | 0.04 | 0.00 | 99 | 1015.8 |
| 20260504021203 | 48 | 53 | 1.0 | 2.0 | 0.00 | 0.04 | 0.00 | 99 | 1015.8 |
| 20260504021103 | 48 | 52 | 1.0 | 2.0 | 0.00 | 0.04 | 0.00 | 99 | 1015.7 |
| 20260504021003 | 48 | 51 | 1.0 | 2.0 | 0.00 | 0.04 | 0.00 | 99 | 1015.8 |
| 20260504020903 | 48 | 53 | 1.0 | 2.0 | 0.00 | 0.04 | 0.00 | 99 | 1016.0 |
| 20260504020803 | 48 | 55 | 1.0 | 2.0 | 0.00 | 0.04 | 0.00 | 99 | 1015.9 |
| 20260504020703 | 48 | 55 | 1.0 | 2.0 | 0.00 | 0.04 | 0.00 | 99 | 1015.9 |
| 20260504020603 | 48 | 54 | 1.0 | 2.0 | 0.00 | 0.04 | 0.00 | 99 | 1015.9 |
| 20260504020503 | 48 | 50 | 1.0 | 2.0 | 0.00 | 0.04 | 0.00 | 99 | 1015.8 |
| 20260504020403 | 48 | 50 | 1.0 | 2.0 | 0.00 | 0.04 | 0.00 | 99 | 1015.9 |
| 20260504020303 | 48 | 51 | 1.0 | 2.0 | 0.00 | 0.04 | 0.00 | 99 | 1015.9 |
| 20260504020203 | 48 | 51 | 1.0 | 2.0 | 0.00 | 0.04 | 0.00 | 99 | 1015.9 |
| 20260504020103 | 48 | 53 | 1.0 | 2.0 | 0.00 | 0.04 | 0.00 | 99 | 1015.9 |
| 20260504020003 | 48 | 54 | 1.0 | 2.0 | 0.00 | 0.04 | 0.00 | 99 | 1015.8 |
| 20260504015924 | 48 | 54 | 1.0 | 2.0 | 0.00 | 0.04 | 0.00 | 99 | 1015.8 |
| 20260504015803 | 48 | 52 | 1.0 | 2.0 | 0.00 | 0.04 | 0.00 | 99 | 1015.7 |
| 20260504015703 | 48 | 49 | 1.0 | 2.0 | 0.00 | 0.04 | 0.00 | 99 | 1015.8 |
| 20260504015603 | 48 | 50 | 1.0 | 2.0 | 0.00 | 0.04 | 0.00 | 99 | 1015.8 |
| 20260504015503 | 48 | 49 | 1.0 | 2.0 | 0.00 | 0.04 | 0.00 | 99 | 1015.7 |
| 20260504015424 | 48 | 50 | 1.0 | 2.0 | 0.00 | 0.04 | 0.00 | 99 | 1015.8 |
| 20260504015304 | 48 | 51 | 1.0 | 2.0 | 0.00 | 0.04 | 0.00 | 99 | 1015.8 |
| 20260504015203 | 48 | 51 | 1.0 | 2.0 | 0.00 | 0.04 | 0.00 | 99 | 1015.9 |
| 20260504015103 | 48 | 49 | 1.0 | 2.0 | 0.00 | 0.04 | 0.00 | 99 | 1015.9 |
| 20260504015004 | 48 | 49 | 1.0 | 2.0 | 0.00 | 0.04 | 0.00 | 99 | 1015.8 |
| 20260504014903 | 48 | 48 | 1.0 | 2.0 | 0.00 | 0.04 | 0.00 | 99 | 1016.0 |
| 20260504014803 | 48 | 48 | 1.0 | 2.0 | 0.00 | 0.04 | 0.00 | 99 | 1016.0 |
| 20260504014703 | 48 | 48 | 1.0 | 2.0 | 0.00 | 0.04 | 0.00 | 99 | 1015.8 |
| 20260504014624 | 48 | 49 | 1.0 | 2.0 | 0.00 | 0.04 | 0.00 | 99 | 1015.8 |
| 20260504014503 | 48 | 47 | 1.0 | 2.0 | 0.00 | 0.04 | 0.00 | 99 | 1015.9 |
| 20260504014424 | 48 | 51 | 1.0 | 2.0 | 0.00 | 0.04 | 0.00 | 99 | 1015.8 |
| 20260504014324 | 48 | 56 | 1.0 | 3.0 | 0.00 | 0.05 | 0.00 | 99 | 1015.8 |
| 20260504014203 | 48 | 56 | 1.0 | 3.0 | 0.00 | 0.05 | 0.00 | 99 | 1015.9 |
| 20260504014103 | 48 | 57 | 1.0 | 3.0 | 0.00 | 0.05 | 0.00 | 98 | 1016.0 |
| 20260504014003 | 48 | 59 | 1.0 | 3.0 | 0.00 | 0.06 | 0.00 | 99 | 1015.9 |
| 20260504013903 | 48 | 61 | 1.0 | 3.0 | 0.00 | 0.06 | 0.00 | 98 | 1015.8 |
| 20260504013803 | 48 | 64 | 0.0 | 3.0 | 0.00 | 0.06 | 0.00 | 98 | 1015.9 |
| 20260504013703 | 48 | 64 | 0.0 | 3.0 | 0.00 | 0.06 | 0.00 | 98 | 1016.0 |
| 20260504013603 | 48 | 67 | 0.0 | 3.0 | 0.00 | 0.06 | 0.00 | 98 | 1015.9 |
| 20260504013524 | 48 | 67 | 0.0 | 3.0 | 0.00 | 0.06 | 0.00 | 98 | 1015.9 |
| 20260504013403 | 48 | 67 | 0.0 | 3.0 | 0.00 | 0.06 | 0.00 | 98 | 1015.7 |
| 20260504013324 | 48 | 60 | 0.0 | 3.0 | 0.00 | 0.06 | 0.00 | 98 | 1015.9 |
| 20260504013203 | 48 | 40 | 0.0 | 1.0 | 0.00 | 0.06 | 0.00 | 98 | 1016.0 |
| 20260504013104 | 48 | 40 | 0.0 | 1.0 | 0.00 | 0.07 | 0.00 | 98 | 1015.8 |
| 20260504013003 | 48 | 40 | 0.0 | 1.0 | 0.00 | 0.07 | 0.00 | 98 | 1016.0 |
| 20260504012903 | 48 | 40 | 0.0 | 1.0 | 0.00 | 0.07 | 0.00 | 98 | 1016.0 |
| 20260504012803 | 48 | 40 | 0.0 | 1.0 | 0.00 | 0.07 | 0.00 | 98 | 1016.1 |
| 20260504012703 | 48 | 40 | 0.0 | 1.0 | 0.00 | 0.07 | 0.00 | 98 | 1015.9 |
| 20260504012624 | 48 | 39 | 0.0 | 1.0 | 0.00 | 0.08 | 0.00 | 98 | 1016.1 |
| 20260504012503 | 48 | 39 | 0.0 | 1.0 | 0.00 | 0.08 | 0.00 | 98 | 1015.9 |
| 20260504012403 | 48 | 39 | 0.0 | 1.0 | 0.00 | 0.08 | 0.00 | 98 | 1015.9 |
| 20260504012304 | 48 | 39 | 0.0 | 1.0 | 0.00 | 0.08 | 0.00 | 98 | 1016.0 |
| 20260504012224 | 48 | 39 | 0.0 | 1.0 | 0.00 | 0.08 | 0.00 | 98 | 1016.0 |
| 20260504012103 | 48 | 39 | 0.0 | 1.0 | 0.00 | 0.08 | 0.00 | 98 | 1016.0 |
| 20260504012003 | 48 | 39 | 0.0 | 1.0 | 0.00 | 0.08 | 0.00 | 98 | 1016.1 |
| 20260504011903 | 48 | 39 | 0.0 | 1.0 | 0.00 | 0.08 | 0.00 | 98 | 1016.1 |
| 20260504011824 | 48 | 39 | 0.0 | 1.0 | 0.00 | 0.08 | 0.00 | 98 | 1015.9 |
| 20260504011703 | 48 | 38 | 0.0 | 1.0 | 0.00 | 0.09 | 0.00 | 98 | 1015.9 |
| 20260504011603 | 48 | 38 | 0.0 | 1.0 | 0.00 | 0.09 | 0.00 | 98 | 1015.9 |
| 20260504011504 | 48 | 39 | 0.0 | 1.0 | 0.00 | 0.09 | 0.00 | 98 | 1016.0 |
| 20260504011403 | 48 | 38 | 0.0 | 1.0 | 0.00 | 0.09 | 0.00 | 98 | 1015.8 |
| 20260504011303 | 48 | 37 | 0.0 | 1.0 | 0.00 | 0.09 | 0.00 | 98 | 1016.1 |
| 20260504011224 | 48 | 37 | 0.0 | 1.0 | 0.00 | 0.09 | 0.00 | 98 | 1016.0 |
| 20260504011103 | 48 | 37 | 0.0 | 1.0 | 0.00 | 0.09 | 0.00 | 98 | 1016.0 |
| 20260504011003 | 48 | 37 | 0.0 | 1.0 | 0.00 | 0.09 | 0.00 | 98 | 1016.0 |
| 20260504010903 | 48 | 37 | 0.0 | 1.0 | 0.00 | 0.09 | 0.00 | 98 | 1016.0 |
| 20260504010804 | 48 | 37 | 0.0 | 1.0 | 0.00 | 0.09 | 0.00 | 98 | 1015.9 |
| 20260504010703 | 48 | 37 | 0.0 | 1.0 | 0.00 | 0.09 | 0.00 | 98 | 1016.0 |
| 20260504010603 | 48 | 32 | 0.0 | 1.0 | 0.00 | 0.09 | 0.00 | 98 | 1015.9 |
| 20260504010503 | 48 | 32 | 0.0 | 1.0 | 0.00 | 0.09 | 0.00 | 98 | 1015.9 |
| 20260504010403 | 48 | 29 | 0.0 | 1.0 | 0.00 | 0.09 | 0.00 | 98 | 1016.2 |
| 20260504010303 | 48 | 29 | 0.0 | 1.0 | 0.00 | 0.09 | 0.00 | 98 | 1016.0 |
| 20260504010203 | 48 | 29 | 0.0 | 1.0 | 0.00 | 0.09 | 0.00 | 98 | 1016.0 |
| 20260504010124 | 48 | 21 | 0.0 | 1.0 | 0.00 | 0.09 | 0.00 | 98 | 1016.0 |
| 20260504010003 | 48 | 21 | 0.0 | 1.0 | 0.00 | 0.09 | 0.00 | 98 | 1016.1 |
| 20260504005903 | 48 | 21 | 0.0 | 1.0 | 0.00 | 0.09 | 0.00 | 98 | 1016.1 |
| 20260504005803 | 48 | 21 | 0.0 | 1.0 | 0.00 | 0.09 | 0.00 | 98 | 1016.0 |
| 20260504005703 | 48 | 21 | 0.0 | 1.0 | 0.00 | 0.09 | 0.00 | 98 | 1016.1 |
| 20260504005603 | 48 | 21 | 0.0 | 1.0 | 0.00 | 0.09 | 0.00 | 98 | 1016.0 |
| 20260504005503 | 48 | 0 | 0.0 | 0.0 | 0.00 | 0.09 | 0.00 | 98 | 1016.1 |
| 20260504005424 | 47 | 0 | 0.0 | 0.0 | 0.00 | 0.09 | 0.00 | 98 | 1016.0 |
| 20260504005304 | 47 | 0 | 0.0 | 0.0 | 0.00 | 0.09 | 0.00 | 98 | 1016.1 |
| 20260504005203 | 48 | 0 | 0.0 | 0.0 | 0.00 | 0.09 | 0.00 | 98 | 1016.1 |
| 20260504005103 | 48 | 0 | 0.0 | 0.0 | 0.00 | 0.09 | 0.00 | 98 | 1015.8 |
| 20260504005004 | 48 | 0 | 0.0 | 0.0 | 0.00 | 0.09 | 0.00 | 98 | 1016.0 |
| 20260504004903 | 48 | 0 | 0.0 | 0.0 | 0.00 | 0.09 | 0.00 | 98 | 1016.1 |
| 20260504004803 | 48 | 0 | 0.0 | 0.0 | 0.00 | 0.09 | 0.00 | 98 | 1016.1 |
| 20260504004703 | 48 | 0 | 0.0 | 0.0 | 0.00 | 0.09 | 0.00 | 98 | 1016.0 |
| 20260504004603 | 48 | 17 | 0.0 | 1.0 | 0.00 | 0.09 | 0.00 | 98 | 1016.0 |
| 20260504004503 | 48 | 17 | 0.0 | 1.0 | 0.00 | 0.09 | 0.00 | 98 | 1016.0 |
| 20260504004403 | 48 | 17 | 0.0 | 1.0 | 0.00 | 0.09 | 0.00 | 98 | 1015.9 |
| 20260504004324 | 48 | 17 | 0.0 | 1.0 | 0.00 | 0.09 | 0.00 | 98 | 1016.1 |
| 20260504004203 | 48 | 17 | 0.0 | 1.0 | 0.00 | 0.09 | 0.00 | 98 | 1016.1 |
| 20260504004103 | 48 | 17 | 0.0 | 1.0 | 0.00 | 0.09 | 0.00 | 98 | 1016.1 |
| 20260504004024 | 48 | 17 | 0.0 | 1.0 | 0.00 | 0.09 | 0.00 | 98 | 1016.0 |
| 20260504003903 | 48 | 17 | 0.0 | 1.0 | 0.00 | 0.09 | 0.00 | 98 | 1016.1 |
| 20260504003803 | 48 | 17 | 0.0 | 1.0 | 0.00 | 0.09 | 0.00 | 98 | 1016.0 |
| 20260504003703 | 48 | 17 | 0.0 | 1.0 | 0.00 | 0.09 | 0.00 | 98 | 1016.0 |
| 20260504003603 | 48 | 17 | 0.0 | 1.0 | 0.00 | 0.09 | 0.00 | 98 | 1016.0 |
| 20260504003503 | 48 | 0 | 0.0 | 0.0 | 0.00 | 0.09 | 0.00 | 98 | 1016.1 |
| 20260504003403 | 48 | 0 | 0.0 | 0.0 | 0.00 | 0.09 | 0.00 | 98 | 1016.1 |
| 20260504003303 | 48 | 0 | 0.0 | 0.0 | 0.00 | 0.09 | 0.00 | 98 | 1016.0 |
| 20260504003203 | 48 | 0 | 0.0 | 0.0 | 0.00 | 0.10 | 0.00 | 98 | 1016.1 |
| 20260504003124 | 48 | 0 | 0.0 | 0.0 | 0.00 | 0.10 | 0.00 | 98 | 1016.1 |
| 20260504003003 | 48 | 0 | 0.0 | 0.0 | 0.00 | 0.10 | 0.00 | 98 | 1015.9 |
| 20260504002903 | 48 | 0 | 0.0 | 0.0 | 0.00 | 0.10 | 0.00 | 97 | 1016.1 |
| 20260504002803 | 48 | 0 | 0.0 | 0.0 | 0.00 | 0.10 | 0.00 | 97 | 1016.0 |
| 20260504002703 | 48 | 0 | 0.0 | 0.0 | 0.00 | 0.11 | 0.00 | 97 | 1016.0 |
| 20260504002603 | 48 | 0 | 0.0 | 0.0 | 0.00 | 0.11 | 0.00 | 97 | 1016.0 |
| 20260504002503 | 47 | 0 | 0.0 | 0.0 | 0.00 | 0.11 | 0.00 | 97 | 1016.0 |
| 20260504002403 | 47 | 0 | 0.0 | 0.0 | 0.00 | 0.11 | 0.00 | 97 | 1016.0 |
| 20260504002304 | 47 | 0 | 0.0 | 0.0 | 0.00 | 0.11 | 0.00 | 97 | 1016.1 |
| 20260504002203 | 47 | 0 | 0.0 | 0.0 | 0.00 | 0.11 | 0.00 | 97 | 1016.0 |
| 20260504002103 | 47 | 0 | 0.0 | 0.0 | 0.00 | 0.11 | 0.00 | 97 | 1016.2 |
| 20260504002024 | 47 | 0 | 0.0 | 0.0 | 0.00 | 0.11 | 0.00 | 97 | 1016.2 |
| 20260504001903 | 48 | 0 | 0.0 | 0.0 | 0.00 | 0.11 | 0.00 | 97 | 1016.1 |
| 20260504001803 | 48 | 0 | 0.0 | 0.0 | 0.00 | 0.11 | 0.00 | 97 | 1016.0 |
| 20260504001703 | 47 | 0 | 0.0 | 0.0 | 0.00 | 0.11 | 0.00 | 97 | 1016.0 |
| 20260504001603 | 47 | 0 | 0.0 | 0.0 | 0.00 | 0.11 | 0.00 | 97 | 1016.0 |
| 20260504001503 | 48 | 0 | 0.0 | 0.0 | 0.00 | 0.11 | 0.00 | 97 | 1016.0 |
| 20260504001403 | 48 | 0 | 0.0 | 0.0 | 0.00 | 0.11 | 0.00 | 97 | 1016.0 |
| 20260504001303 | 48 | 0 | 0.0 | 0.0 | 0.00 | 0.12 | 0.00 | 97 | 1016.0 |
| 20260504001202 | 48 | 0 | 0.0 | 0.0 | 0.00 | 0.12 | 0.00 | 97 | 1016.1 |
| 20260504001124 | 48 | 0 | 0.0 | 0.0 | 0.00 | 0.12 | 0.00 | 97 | 1016.1 |
| 20260504001003 | 48 | 0 | 0.0 | 0.0 | 0.00 | 0.12 | 0.00 | 97 | 1016.0 |
| 20260504000902 | 48 | 0 | 0.0 | 0.0 | 0.00 | 0.12 | 0.00 | 97 | 1016.0 |
| 20260504000803 | 48 | 0 | 0.0 | 0.0 | 0.00 | 0.12 | 0.00 | 97 | 1016.1 |
| 20260504000724 | 48 | 0 | 0.0 | 0.0 | 0.00 | 0.12 | 0.00 | 97 | 1016.1 |
| 20260504000602 | 48 | 0 | 0.0 | 0.0 | 0.00 | 0.12 | 0.00 | 97 | 1015.9 |
| 20260504000503 | 48 | 0 | 0.0 | 0.0 | 0.00 | 0.13 | 0.00 | 97 | 1016.0 |
| 20260504000403 | 48 | 0 | 0.0 | 0.0 | 0.00 | 0.13 | 0.00 | 97 | 1016.0 |
| 20260504000303 | 48 | 0 | 0.0 | 0.0 | 0.00 | 0.14 | 0.00 | 97 | 1016.0 |
| 20260504000204 | 48 | 0 | 0.0 | 0.0 | 0.00 | 0.14 | 0.00 | 97 | 1016.0 |
| 20260504000003 | 48 | 0 | 0.0 | 0.0 | 0.00 | 0.15 | 0.00 | 97 | 1016.0 |
| 20260503235903 | 48 | 0 | 0.0 | 0.0 | 0.00 | 0.16 | 0.00 | 97 | 1016.1 |
| 20260503235803 | 49 | 0 | 0.0 | 0.0 | 0.00 | 0.16 | 0.00 | 97 | 1016.1 |
| 20260503235724 | 49 | 0 | 0.0 | 0.0 | 0.00 | 0.17 | 0.00 | 97 | 1016.1 |
| 20260503235603 | 49 | 0 | 0.0 | 0.0 | 0.00 | 0.17 | 0.00 | 97 | 1016.1 |
| 20260503235503 | 49 | 0 | 0.0 | 0.0 | 0.00 | 0.17 | 0.00 | 97 | 1016.2 |
| 20260503235403 | 49 | 0 | 0.0 | 0.0 | 0.00 | 0.17 | 0.00 | 97 | 1016.0 |
| 20260503235304 | 49 | 0 | 0.0 | 0.0 | 0.00 | 0.17 | 0.00 | 97 | 1016.1 |
| 20260503235203 | 49 | 0 | 0.0 | 0.0 | 0.00 | 0.17 | 0.00 | 97 | 1016.2 |
| 20260503235103 | 49 | 0 | 0.0 | 0.0 | 0.00 | 0.18 | 0.00 | 97 | 1016.0 |
| 20260503235003 | 49 | 0 | 0.0 | 0.0 | 0.00 | 0.18 | 0.00 | 97 | 1016.1 |
| 20260503234903 | 49 | 0 | 0.0 | 0.0 | 0.00 | 0.18 | 0.00 | 97 | 1016.0 |
| 20260503234803 | 49 | 0 | 0.0 | 0.0 | 0.00 | 0.18 | 0.00 | 97 | 1016.0 |
| 20260503234702 | 49 | 0 | 0.0 | 0.0 | 0.00 | 0.18 | 0.00 | 97 | 1016.0 |
| 20260503234603 | 49 | 0 | 0.0 | 0.0 | 0.00 | 0.18 | 0.00 | 97 | 1016.2 |
| 20260503234504 | 49 | 0 | 0.0 | 0.0 | 0.00 | 0.18 | 0.00 | 97 | 1016.0 |
| 20260503234402 | 49 | 0 | 0.0 | 0.0 | 0.00 | 0.18 | 0.00 | 97 | 1016.0 |
| 20260503234303 | 49 | 0 | 0.0 | 0.0 | 0.00 | 0.18 | 0.00 | 97 | 1016.0 |
| 20260503234202 | 49 | 0 | 0.0 | 0.0 | 0.00 | 0.18 | 0.00 | 97 | 1016.0 |
| 20260503234124 | 49 | 0 | 0.0 | 0.0 | 0.00 | 0.18 | 0.00 | 97 | 1016.1 |
| 20260503234002 | 50 | 0 | 0.0 | 0.0 | 0.00 | 0.18 | 0.00 | 97 | 1016.0 |
| 20260503233903 | 50 | 0 | 0.0 | 0.0 | 0.00 | 0.18 | 0.00 | 97 | 1016.2 |
| 20260503233802 | 50 | 17 | 0.0 | 1.0 | 0.00 | 0.18 | 0.00 | 97 | 1016.0 |
| 20260503233724 | 50 | 17 | 0.0 | 1.0 | 0.00 | 0.18 | 0.00 | 97 | 1016.2 |
| 20260503233603 | 50 | 17 | 0.0 | 1.0 | 0.00 | 0.18 | 0.00 | 97 | 1016.0 |
| 20260503233503 | 50 | 17 | 0.0 | 1.0 | 0.00 | 0.19 | 0.00 | 96 | 1016.3 |
| 20260503233403 | 50 | 17 | 0.0 | 1.0 | 0.00 | 0.19 | 0.00 | 96 | 1016.2 |
| 20260503233324 | 50 | 17 | 0.0 | 1.0 | 0.00 | 0.19 | 0.00 | 96 | 1016.2 |
| 20260503233203 | 50 | 17 | 0.0 | 1.0 | 0.00 | 0.19 | 0.00 | 96 | 1016.2 |
| 20260503233102 | 50 | 17 | 0.0 | 1.0 | 0.00 | 0.19 | 0.00 | 96 | 1016.3 |
| 20260503233002 | 50 | 17 | 0.0 | 1.0 | 0.00 | 0.19 | 0.00 | 96 | 1016.0 |
| 20260503232903 | 50 | 17 | 0.0 | 1.0 | 0.00 | 0.19 | 0.00 | 97 | 1016.0 |
| 20260503232803 | 50 | 17 | 0.0 | 1.0 | 0.00 | 0.19 | 0.00 | 97 | 1016.0 |
| 20260503232703 | 50 | 0 | 0.0 | 0.0 | 0.00 | 0.19 | 0.00 | 96 | 1016.2 |
| 20260503232603 | 50 | 0 | 0.0 | 0.0 | 0.00 | 0.19 | 0.00 | 96 | 1016.2 |
| 20260503232524 | 50 | 0 | 0.0 | 0.0 | 0.00 | 0.19 | 0.00 | 96 | 1016.1 |
| 20260503232403 | 50 | 0 | 0.0 | 0.0 | 0.00 | 0.19 | 0.00 | 96 | 1016.2 |
| 20260503232305 | 50 | 0 | 0.0 | 0.0 | 0.00 | 0.19 | 0.00 | 96 | 1016.1 |
| 20260503232203 | 50 | 0 | 0.0 | 0.0 | 0.00 | 0.19 | 0.00 | 96 | 1016.1 |
| 20260503232102 | 50 | 0 | 0.0 | 0.0 | 0.00 | 0.19 | 0.00 | 96 | 1016.1 |
| 20260503232003 | 50 | 0 | 0.0 | 0.0 | 0.00 | 0.19 | 0.00 | 96 | 1016.2 |
| 20260503231902 | 50 | 0 | 0.0 | 0.0 | 0.00 | 0.19 | 0.00 | 96 | 1016.1 |
| 20260503231803 | 50 | 0 | 0.0 | 0.0 | 0.00 | 0.19 | 0.00 | 96 | 1016.1 |
| 20260503231702 | 50 | 0 | 0.0 | 0.0 | 0.00 | 0.19 | 0.00 | 96 | 1016.3 |
| 20260503231603 | 50 | 0 | 0.0 | 0.0 | 0.00 | 0.19 | 0.00 | 96 | 1016.2 |
| 20260503231503 | 50 | 0 | 0.0 | 0.0 | 0.00 | 0.19 | 0.00 | 96 | 1016.2 |
| 20260503231403 | 50 | 0 | 0.0 | 0.0 | 0.00 | 0.19 | 0.00 | 96 | 1016.2 |
| 20260503231303 | 50 | 0 | 0.0 | 0.0 | 0.00 | 0.19 | 0.00 | 96 | 1016.1 |
| 20260503231202 | 50 | 0 | 0.0 | 0.0 | 0.00 | 0.19 | 0.00 | 96 | 1016.2 |
| 20260503231103 | 50 | 0 | 0.0 | 0.0 | 0.00 | 0.19 | 0.00 | 96 | 1016.1 |
| 20260503231003 | 50 | 0 | 0.0 | 0.0 | 0.00 | 0.19 | 0.00 | 96 | 1016.2 |
| 20260503230902 | 50 | 0 | 0.0 | 0.0 | 0.00 | 0.19 | 0.00 | 96 | 1016.3 |
| 20260503230802 | 50 | 0 | 0.0 | 0.0 | 0.00 | 0.19 | 0.00 | 96 | 1016.2 |
| 20260503230702 | 50 | 0 | 0.0 | 0.0 | 0.00 | 0.19 | 0.00 | 96 | 1016.2 |
| 20260503230603 | 50 | 0 | 0.0 | 0.0 | 0.00 | 0.19 | 0.00 | 95 | 1016.3 |
| 20260503230503 | 50 | 0 | 0.0 | 0.0 | 0.00 | 0.19 | 0.00 | 95 | 1016.3 |
| 20260503230402 | 50 | 0 | 0.0 | 0.0 | 0.00 | 0.19 | 0.00 | 95 | 1016.3 |
| 20260503230303 | 50 | 0 | 0.0 | 0.0 | 0.00 | 0.19 | 0.00 | 95 | 1016.2 |
| 20260503230203 | 50 | 0 | 0.0 | 0.0 | 0.00 | 0.19 | 0.00 | 95 | 1016.2 |
| 20260503230104 | 50 | 0 | 0.0 | 0.0 | 0.00 | 0.19 | 0.00 | 95 | 1016.4 |
| 20260503230024 | 50 | 0 | 0.0 | 0.0 | 0.00 | 0.19 | 0.00 | 95 | 1016.4 |
| 20260503225903 | 50 | 0 | 0.0 | 0.0 | 0.00 | 0.19 | 0.00 | 95 | 1016.3 |
| 20260503225803 | 50 | 0 | 0.0 | 0.0 | 0.00 | 0.19 | 0.00 | 95 | 1016.3 |
| 20260503225723 | 50 | 0 | 0.0 | 0.0 | 0.00 | 0.19 | 0.00 | 95 | 1016.4 |
| 20260503225603 | 50 | 0 | 0.0 | 0.0 | 0.00 | 0.19 | 0.00 | 95 | 1016.2 |
| 20260503225524 | 50 | 0 | 0.0 | 0.0 | 0.00 | 0.19 | 0.00 | 95 | 1016.3 |
| 20260503225403 | 50 | 0 | 0.0 | 0.0 | 0.00 | 0.19 | 0.00 | 95 | 1016.2 |
| 20260503225304 | 50 | 0 | 0.0 | 0.0 | 0.00 | 0.19 | 0.00 | 95 | 1016.3 |
| 20260503225224 | 50 | 0 | 0.0 | 0.0 | 0.00 | 0.19 | 0.00 | 95 | 1016.3 |
| 20260503225103 | 50 | 0 | 0.0 | 0.0 | 0.00 | 0.19 | 0.00 | 95 | 1016.3 |
| 20260503225003 | 50 | 0 | 0.0 | 0.0 | 0.00 | 0.19 | 0.00 | 95 | 1016.3 |
| 20260503224903 | 50 | 0 | 0.0 | 0.0 | 0.00 | 0.19 | 0.00 | 95 | 1016.3 |
| 20260503224803 | 50 | 0 | 0.0 | 0.0 | 0.00 | 0.19 | 0.00 | 95 | 1016.4 |
| 20260503224703 | 50 | 0 | 0.0 | 0.0 | 0.00 | 0.19 | 0.00 | 95 | 1016.1 |
| 20260503224603 | 50 | 0 | 0.0 | 0.0 | 0.00 | 0.19 | 0.00 | 95 | 1016.2 |
| 20260503224503 | 50 | 0 | 0.0 | 0.0 | 0.00 | 0.19 | 0.00 | 95 | 1016.3 |
| 20260503224403 | 50 | 0 | 0.0 | 0.0 | 0.00 | 0.19 | 0.00 | 95 | 1016.3 |
| 20260503224303 | 50 | 0 | 0.0 | 0.0 | 0.00 | 0.19 | 0.00 | 94 | 1016.2 |
| 20260503224203 | 50 | 0 | 0.0 | 0.0 | 0.00 | 0.19 | 0.00 | 94 | 1016.1 |
| 20260503224103 | 50 | 0 | 0.0 | 0.0 | 0.00 | 0.19 | 0.00 | 94 | 1016.3 |
| 20260503224003 | 50 | 0 | 0.0 | 0.0 | 0.00 | 0.19 | 0.00 | 94 | 1016.2 |
| 20260503223903 | 50 | 0 | 0.0 | 0.0 | 0.00 | 0.19 | 0.00 | 94 | 1016.2 |
| 20260503223803 | 50 | 0 | 0.0 | 0.0 | 0.00 | 0.19 | 0.00 | 94 | 1016.2 |
| 20260503223724 | 50 | 0 | 0.0 | 0.0 | 0.00 | 0.19 | 0.00 | 94 | 1016.4 |
| 20260503223602 | 50 | 0 | 0.0 | 0.0 | 0.00 | 0.19 | 0.00 | 94 | 1016.2 |
| 20260503223503 | 50 | 0 | 0.0 | 0.0 | 0.00 | 0.19 | 0.00 | 94 | 1016.4 |
| 20260503223403 | 50 | 0 | 0.0 | 0.0 | 0.00 | 0.19 | 0.00 | 94 | 1016.2 |
| 20260503223324 | 50 | 0 | 0.0 | 0.0 | 0.00 | 0.19 | 0.00 | 94 | 1016.3 |
| 20260503223203 | 50 | 0 | 0.0 | 0.0 | 0.00 | 0.19 | 0.00 | 94 | 1016.4 |
| 20260503223103 | 50 | 0 | 0.0 | 0.0 | 0.00 | 0.19 | 0.00 | 94 | 1016.2 |
| 20260503223003 | 51 | 0 | 0.0 | 0.0 | 0.00 | 0.19 | 0.00 | 94 | 1016.2 |
| 20260503222924 | 51 | 0 | 0.0 | 0.0 | 0.00 | 0.19 | 0.00 | 94 | 1016.1 |
| 20260503222803 | 51 | 0 | 0.0 | 0.0 | 0.00 | 0.19 | 0.00 | 94 | 1016.3 |
| 20260503222703 | 51 | 0 | 0.0 | 0.0 | 0.00 | 0.19 | 0.00 | 94 | 1016.3 |
| 20260503222603 | 51 | 0 | 0.0 | 0.0 | 0.00 | 0.19 | 0.00 | 94 | 1016.4 |
| 20260503222503 | 51 | 0 | 0.0 | 0.0 | 0.00 | 0.19 | 0.00 | 94 | 1016.3 |
| 20260503222403 | 51 | 0 | 0.0 | 0.0 | 0.00 | 0.19 | 0.00 | 94 | 1016.2 |
| 20260503222304 | 51 | 0 | 0.0 | 0.0 | 0.00 | 0.19 | 0.00 | 94 | 1016.2 |
| 20260503222224 | 51 | 0 | 0.0 | 0.0 | 0.00 | 0.19 | 0.00 | 94 | 1016.3 |
| 20260503222102 | 51 | 0 | 0.0 | 0.0 | 0.00 | 0.19 | 0.00 | 94 | 1016.2 |
| 20260503222003 | 51 | 0 | 0.0 | 0.0 | 0.00 | 0.19 | 0.00 | 94 | 1016.3 |
| 20260503221903 | 51 | 0 | 0.0 | 0.0 | 0.00 | 0.19 | 0.00 | 94 | 1016.3 |
| 20260503221803 | 51 | 0 | 0.0 | 0.0 | 0.00 | 0.19 | 0.00 | 94 | 1016.2 |
| 20260503221703 | 51 | 0 | 0.0 | 0.0 | 0.00 | 0.19 | 0.00 | 94 | 1016.3 |
| 20260503221603 | 51 | 0 | 0.0 | 0.0 | 0.00 | 0.19 | 0.00 | 94 | 1016.3 |
| 20260503221503 | 51 | 0 | 0.0 | 0.0 | 0.00 | 0.19 | 0.00 | 94 | 1016.2 |
| 20260503221403 | 51 | 0 | 0.0 | 0.0 | 0.00 | 0.19 | 0.00 | 94 | 1016.1 |
| 20260503221303 | 51 | 0 | 0.0 | 0.0 | 0.00 | 0.19 | 0.00 | 94 | 1016.3 |
| 20260503221203 | 51 | 0 | 0.0 | 0.0 | 0.00 | 0.19 | 0.00 | 94 | 1016.0 |
| 20260503221124 | 51 | 0 | 0.0 | 0.0 | 0.00 | 0.19 | 0.00 | 94 | 1016.0 |
| 20260503221003 | 52 | 0 | 0.0 | 0.0 | 0.00 | 0.19 | 0.00 | 94 | 1016.2 |
| 20260503220903 | 52 | 0 | 0.0 | 0.0 | 0.00 | 0.19 | 0.00 | 94 | 1016.2 |
| 20260503220803 | 52 | 0 | 0.0 | 0.0 | 0.00 | 0.19 | 0.00 | 94 | 1016.2 |
| 20260503220703 | 52 | 0 | 0.0 | 0.0 | 0.00 | 0.19 | 0.00 | 94 | 1016.1 |
| 20260503220603 | 52 | 0 | 0.0 | 0.0 | 0.00 | 0.19 | 0.00 | 94 | 1016.1 |
| 20260503220524 | 52 | 0 | 0.0 | 0.0 | 0.00 | 0.19 | 0.00 | 94 | 1016.2 |
| 20260503220403 | 52 | 0 | 0.0 | 0.0 | 0.00 | 0.19 | 0.00 | 94 | 1016.0 |
| 20260503220324 | 52 | 0 | 0.0 | 0.0 | 0.00 | 0.19 | 0.00 | 94 | 1016.2 |
| 20260503220203 | 52 | 0 | 0.0 | 0.0 | 0.00 | 0.19 | 0.00 | 94 | 1016.2 |
| 20260503220003 | 52 | 0 | 0.0 | 0.0 | 0.00 | 0.19 | 0.00 | 94 | 1016.2 |
| 20260503215903 | 52 | 0 | 0.0 | 0.0 | 0.00 | 0.19 | 0.19 | 94 | 1016.3 |
| 20260503215803 | 52 | 0 | 0.0 | 0.0 | 0.00 | 0.19 | 0.19 | 94 | 1016.2 |
| 20260503215703 | 52 | 0 | 0.0 | 0.0 | 0.00 | 0.19 | 0.19 | 94 | 1016.2 |
| 20260503215603 | 52 | 0 | 0.0 | 0.0 | 0.00 | 0.19 | 0.19 | 94 | 1016.1 |
| 20260503215502 | 52 | 0 | 0.0 | 0.0 | 0.00 | 0.19 | 0.19 | 94 | 1016.1 |
| 20260503215403 | 52 | 0 | 0.0 | 0.0 | 0.00 | 0.19 | 0.19 | 94 | 1016.1 |
| 20260503215304 | 52 | 0 | 0.0 | 0.0 | 0.00 | 0.19 | 0.19 | 93 | 1016.2 |
| 20260503215203 | 52 | 0 | 0.0 | 0.0 | 0.00 | 0.19 | 0.19 | 93 | 1016.2 |
| 20260503215124 | 52 | 0 | 0.0 | 0.0 | 0.00 | 0.19 | 0.19 | 93 | 1016.2 |
| 20260503215024 | 52 | 0 | 0.0 | 0.0 | 0.00 | 0.19 | 0.19 | 93 | 1016.3 |
| 20260503214903 | 52 | 0 | 0.0 | 0.0 | 0.00 | 0.19 | 0.19 | 93 | 1016.1 |
| 20260503214803 | 52 | 0 | 0.0 | 0.0 | 0.00 | 0.19 | 0.19 | 93 | 1016.2 |
| 20260503214703 | 52 | 0 | 0.0 | 0.0 | 0.00 | 0.19 | 0.19 | 93 | 1016.1 |
| 20260503214603 | 52 | 0 | 0.0 | 0.0 | 0.00 | 0.19 | 0.19 | 93 | 1016.2 |
| 20260503214503 | 52 | 0 | 0.0 | 0.0 | 0.00 | 0.19 | 0.19 | 93 | 1016.1 |
| 20260503214403 | 52 | 0 | 0.0 | 0.0 | 0.00 | 0.19 | 0.19 | 93 | 1016.1 |
| 20260503214303 | 52 | 0 | 0.0 | 0.0 | 0.00 | 0.19 | 0.19 | 93 | 1016.0 |
| 20260503214224 | 52 | 0 | 0.0 | 0.0 | 0.00 | 0.19 | 0.19 | 93 | 1016.2 |
| 20260503214103 | 52 | 0 | 0.0 | 0.0 | 0.00 | 0.19 | 0.19 | 93 | 1016.1 |
| 20260503214003 | 52 | 0 | 0.0 | 0.0 | 0.00 | 0.19 | 0.19 | 93 | 1016.1 |
| 20260503213903 | 52 | 0 | 0.0 | 0.0 | 0.00 | 0.19 | 0.19 | 93 | 1016.0 |
| 20260503213803 | 52 | 0 | 0.0 | 0.0 | 0.00 | 0.19 | 0.19 | 93 | 1016.1 |
| 20260503213703 | 52 | 0 | 0.0 | 0.0 | 0.00 | 0.19 | 0.19 | 93 | 1016.2 |
| 20260503213603 | 52 | 0 | 0.0 | 0.0 | 0.00 | 0.19 | 0.19 | 93 | 1015.9 |
| 20260503213503 | 52 | 0 | 0.0 | 0.0 | 0.00 | 0.19 | 0.19 | 93 | 1016.1 |
| 20260503213403 | 52 | 0 | 0.0 | 0.0 | 0.00 | 0.19 | 0.19 | 93 | 1016.1 |
| 20260503213303 | 52 | 0 | 0.0 | 0.0 | 0.00 | 0.19 | 0.19 | 93 | 1016.0 |
| 20260503213203 | 52 | 0 | 0.0 | 0.0 | 0.00 | 0.19 | 0.19 | 93 | 1016.1 |
| 20260503213103 | 52 | 0 | 0.0 | 0.0 | 0.00 | 0.19 | 0.19 | 92 | 1016.0 |
| 20260503213004 | 52 | 0 | 0.0 | 0.0 | 0.00 | 0.19 | 0.19 | 92 | 1016.0 |
| 20260503212924 | 52 | 0 | 0.0 | 0.0 | 0.00 | 0.19 | 0.19 | 92 | 1016.1 |
| 20260503212803 | 52 | 0 | 0.0 | 0.0 | 0.00 | 0.19 | 0.19 | 92 | 1015.9 |
| 20260503212703 | 52 | 0 | 0.0 | 0.0 | 0.00 | 0.19 | 0.19 | 92 | 1016.2 |
| 20260503212624 | 52 | 0 | 0.0 | 0.0 | 0.00 | 0.19 | 0.19 | 92 | 1015.9 |
| 20260503212503 | 52 | 0 | 0.0 | 0.0 | 0.00 | 0.19 | 0.19 | 92 | 1015.9 |
| 20260503212424 | 52 | 0 | 0.0 | 0.0 | 0.00 | 0.19 | 0.19 | 92 | 1016.0 |
| 20260503212304 | 52 | 0 | 0.0 | 0.0 | 0.00 | 0.19 | 0.19 | 92 | 1016.2 |
| 20260503212203 | 52 | 0 | 0.0 | 0.0 | 0.00 | 0.19 | 0.19 | 92 | 1016.1 |
| 20260503212103 | 52 | 0 | 0.0 | 0.0 | 0.00 | 0.19 | 0.19 | 91 | 1015.9 |
| 20260503212003 | 52 | 0 | 0.0 | 0.0 | 0.00 | 0.19 | 0.19 | 91 | 1016.0 |
| 20260503211903 | 52 | 0 | 0.0 | 0.0 | 0.00 | 0.19 | 0.19 | 91 | 1016.0 |
| 20260503211803 | 52 | 0 | 0.0 | 0.0 | 0.00 | 0.19 | 0.19 | 91 | 1016.2 |
| 20260503211703 | 52 | 0 | 0.0 | 0.0 | 0.00 | 0.19 | 0.19 | 91 | 1016.0 |
| 20260503211603 | 53 | 0 | 0.0 | 0.0 | 0.00 | 0.19 | 0.19 | 91 | 1016.1 |
| 20260503211503 | 53 | 0 | 0.0 | 0.0 | 0.00 | 0.19 | 0.19 | 91 | 1016.1 |
| 20260503211403 | 53 | 0 | 0.0 | 0.0 | 0.00 | 0.19 | 0.19 | 91 | 1016.0 |
| 20260503211324 | 53 | 0 | 0.0 | 0.0 | 0.00 | 0.19 | 0.19 | 91 | 1016.0 |
| 20260503211203 | 53 | 0 | 0.0 | 0.0 | 0.00 | 0.19 | 0.19 | 91 | 1016.0 |
| 20260503211103 | 53 | 0 | 0.0 | 0.0 | 0.00 | 0.19 | 0.19 | 91 | 1016.1 |
| 20260503211003 | 53 | 0 | 0.0 | 0.0 | 0.00 | 0.19 | 0.19 | 91 | 1016.0 |
| 20260503210903 | 53 | 0 | 0.0 | 0.0 | 0.00 | 0.19 | 0.19 | 91 | 1015.9 |
| 20260503210803 | 53 | 0 | 0.0 | 0.0 | 0.00 | 0.19 | 0.19 | 91 | 1015.9 |
| 20260503210703 | 53 | 0 | 0.0 | 0.0 | 0.00 | 0.19 | 0.19 | 91 | 1016.0 |
| 20260503210603 | 53 | 0 | 0.0 | 0.0 | 0.00 | 0.19 | 0.19 | 91 | 1015.9 |
| 20260503210503 | 53 | 0 | 0.0 | 0.0 | 0.00 | 0.19 | 0.19 | 91 | 1015.9 |
| 20260503210403 | 53 | 0 | 0.0 | 0.0 | 0.00 | 0.19 | 0.19 | 91 | 1015.9 |
| 20260503210303 | 53 | 0 | 0.0 | 0.0 | 0.00 | 0.19 | 0.19 | 90 | 1016.0 |
| 20260503210203 | 53 | 0 | 0.0 | 0.0 | 0.00 | 0.19 | 0.19 | 90 | 1015.8 |
| 20260503210003 | 53 | 0 | 0.0 | 0.0 | 0.00 | 0.19 | 0.19 | 90 | 1015.8 |
| 20260503205903 | 53 | 0 | 0.0 | 0.0 | 0.00 | 0.19 | 0.19 | 90 | 1015.9 |
| 20260503205803 | 53 | 0 | 0.0 | 0.0 | 0.00 | 0.19 | 0.19 | 90 | 1015.9 |
| 20260503205724 | 53 | 0 | 0.0 | 0.0 | 0.00 | 0.19 | 0.19 | 90 | 1015.8 |
| 20260503205603 | 53 | 16 | 0.0 | 1.0 | 0.00 | 0.19 | 0.19 | 90 | 1015.9 |
| 20260503205503 | 53 | 16 | 0.0 | 1.0 | 0.00 | 0.19 | 0.19 | 90 | 1015.9 |
| 20260503205403 | 53 | 16 | 0.0 | 1.0 | 0.00 | 0.19 | 0.19 | 90 | 1015.8 |
| 20260503205304 | 53 | 16 | 0.0 | 1.0 | 0.00 | 0.19 | 0.19 | 90 | 1015.7 |
| 20260503205203 | 53 | 16 | 0.0 | 1.0 | 0.00 | 0.19 | 0.19 | 90 | 1015.8 |
| 20260503205103 | 53 | 16 | 0.0 | 1.0 | 0.00 | 0.19 | 0.19 | 90 | 1015.8 |
| 20260503205003 | 53 | 16 | 0.0 | 1.0 | 0.00 | 0.19 | 0.19 | 90 | 1015.8 |
| 20260503204903 | 53 | 16 | 0.0 | 1.0 | 0.00 | 0.19 | 0.19 | 90 | 1015.6 |
| 20260503204803 | 53 | 16 | 0.0 | 1.0 | 0.00 | 0.19 | 0.19 | 90 | 1015.8 |
| 20260503204703 | 53 | 16 | 1.0 | 1.0 | 0.00 | 0.19 | 0.19 | 90 | 1015.7 |
| 20260503204603 | 53 | 16 | 1.0 | 1.0 | 0.00 | 0.19 | 0.19 | 90 | 1015.8 |
| 20260503204503 | 53 | 16 | 1.0 | 1.0 | 0.00 | 0.19 | 0.19 | 90 | 1015.8 |
| 20260503204403 | 53 | 16 | 1.0 | 1.0 | 0.00 | 0.19 | 0.19 | 90 | 1015.7 |
| 20260503204324 | 53 | 16 | 1.0 | 1.0 | 0.00 | 0.19 | 0.19 | 90 | 1015.7 |
| 20260503204203 | 53 | 16 | 1.0 | 1.0 | 0.00 | 0.19 | 0.19 | 90 | 1015.6 |
| 20260503204124 | 53 | 16 | 0.0 | 1.0 | 0.00 | 0.19 | 0.19 | 90 | 1015.6 |
| 20260503204003 | 53 | 16 | 0.0 | 1.0 | 0.00 | 0.19 | 0.19 | 90 | 1015.7 |
| 20260503203903 | 53 | 16 | 0.0 | 1.0 | 0.00 | 0.19 | 0.19 | 90 | 1015.5 |
| 20260503203803 | 53 | 16 | 0.0 | 2.0 | 0.00 | 0.19 | 0.19 | 90 | 1015.7 |
| 20260503203703 | 53 | 16 | 0.0 | 2.0 | 0.00 | 0.19 | 0.19 | 90 | 1015.6 |
| 20260503203603 | 53 | 16 | 0.0 | 2.0 | 0.00 | 0.19 | 0.19 | 90 | 1015.7 |
| 20260503203503 | 53 | 15 | 0.0 | 2.0 | 0.00 | 0.19 | 0.19 | 90 | 1015.6 |
| 20260503203403 | 53 | 15 | 0.0 | 2.0 | 0.00 | 0.19 | 0.19 | 90 | 1015.5 |
| 20260503203303 | 53 | 15 | 0.0 | 2.0 | 0.00 | 0.19 | 0.19 | 90 | 1015.8 |
| 20260503203203 | 53 | 15 | 0.0 | 2.0 | 0.00 | 0.19 | 0.19 | 90 | 1015.6 |
| 20260503203103 | 53 | 15 | 0.0 | 2.0 | 0.00 | 0.19 | 0.19 | 90 | 1015.4 |
| 20260503203003 | 53 | 15 | 0.0 | 2.0 | 0.00 | 0.19 | 0.19 | 90 | 1015.5 |
| 20260503202903 | 53 | 15 | 0.0 | 2.0 | 0.00 | 0.19 | 0.19 | 90 | 1015.6 |
| 20260503202803 | 53 | 15 | 0.0 | 2.0 | 0.00 | 0.19 | 0.19 | 90 | 1015.6 |
| 20260503202703 | 53 | 14 | 0.0 | 1.0 | 0.00 | 0.19 | 0.19 | 90 | 1015.6 |
| 20260503202603 | 53 | 14 | 1.0 | 1.0 | 0.00 | 0.19 | 0.19 | 90 | 1015.5 |
| 20260503202503 | 53 | 13 | 1.0 | 2.0 | 0.00 | 0.19 | 0.19 | 90 | 1015.6 |
| 20260503202403 | 53 | 13 | 1.0 | 2.0 | 0.00 | 0.19 | 0.19 | 89 | 1015.5 |
| 20260503202304 | 53 | 13 | 0.0 | 2.0 | 0.00 | 0.19 | 0.19 | 89 | 1015.5 |
| 20260503202224 | 53 | 13 | 0.0 | 2.0 | 0.00 | 0.19 | 0.19 | 89 | 1015.5 |
| 20260503202103 | 53 | 13 | 0.0 | 2.0 | 0.00 | 0.19 | 0.19 | 89 | 1015.4 |
| 20260503202003 | 53 | 12 | 0.0 | 2.0 | 0.00 | 0.19 | 0.19 | 89 | 1015.5 |
| 20260503201903 | 53 | 11 | 0.0 | 2.0 | 0.00 | 0.19 | 0.19 | 89 | 1015.4 |
| 20260503201803 | 54 | 10 | 0.0 | 2.0 | 0.00 | 0.19 | 0.19 | 89 | 1015.3 |
| 20260503201703 | 54 | 10 | 0.0 | 2.0 | 0.00 | 0.19 | 0.19 | 89 | 1015.3 |
| 20260503201603 | 54 | 10 | 0.0 | 2.0 | 0.00 | 0.19 | 0.19 | 89 | 1015.3 |
| 20260503201503 | 54 | 11 | 0.0 | 2.0 | 0.00 | 0.19 | 0.19 | 89 | 1015.4 |
| 20260503201403 | 54 | 11 | 0.0 | 2.0 | 0.00 | 0.19 | 0.19 | 89 | 1015.4 |
| 20260503201303 | 54 | 11 | 1.0 | 2.0 | 0.00 | 0.19 | 0.19 | 89 | 1015.4 |
| 20260503201203 | 54 | 11 | 1.0 | 2.0 | 0.00 | 0.19 | 0.19 | 89 | 1015.4 |
| 20260503201103 | 54 | 11 | 1.0 | 2.0 | 0.00 | 0.19 | 0.19 | 89 | 1015.6 |
| 20260503201003 | 54 | 11 | 1.0 | 2.0 | 0.00 | 0.19 | 0.19 | 89 | 1015.2 |
| 20260503200903 | 54 | 11 | 1.0 | 2.0 | 0.00 | 0.19 | 0.19 | 89 | 1015.2 |
| 20260503200803 | 54 | 11 | 1.0 | 2.0 | 0.00 | 0.19 | 0.19 | 89 | 1015.3 |
| 20260503200703 | 54 | 10 | 1.0 | 2.0 | 0.00 | 0.19 | 0.19 | 89 | 1015.2 |
| 20260503200624 | 54 | 9 | 1.0 | 2.0 | 0.00 | 0.19 | 0.19 | 89 | 1015.2 |
| 20260503200503 | 54 | 9 | 1.0 | 2.0 | 0.00 | 0.19 | 0.19 | 89 | 1015.2 |
| 20260503200403 | 54 | 8 | 1.0 | 2.0 | 0.00 | 0.19 | 0.19 | 89 | 1015.3 |
| 20260503200324 | 54 | 8 | 1.0 | 2.0 | 0.00 | 0.19 | 0.19 | 89 | 1015.3 |
| 20260503200203 | 54 | 7 | 1.0 | 2.0 | 0.00 | 0.19 | 0.19 | 89 | 1015.0 |
| 20260503200003 | 54 | 7 | 1.0 | 2.0 | 0.00 | 0.19 | 0.19 | 89 | 1015.2 |
| 20260503195903 | 54 | 7 | 1.0 | 2.0 | 0.00 | 0.19 | 0.19 | 89 | 1015.2 |
| 20260503195803 | 54 | 7 | 1.0 | 2.0 | 0.00 | 0.19 | 0.19 | 89 | 1015.1 |
| 20260503195703 | 54 | 7 | 1.0 | 2.0 | 0.00 | 0.19 | 0.19 | 89 | 1015.1 |
| 20260503195603 | 54 | 7 | 1.0 | 2.0 | 0.00 | 0.19 | 0.19 | 89 | 1015.1 |
| 20260503195503 | 54 | 8 | 0.0 | 2.0 | 0.00 | 0.19 | 0.19 | 89 | 1015.2 |
| 20260503195403 | 54 | 8 | 1.0 | 2.0 | 0.00 | 0.19 | 0.19 | 88 | 1015.2 |
| 20260503195304 | 55 | 8 | 1.0 | 2.0 | 0.00 | 0.19 | 0.19 | 88 | 1015.2 |
| 20260503195224 | 55 | 8 | 1.0 | 2.0 | 0.00 | 0.19 | 0.19 | 88 | 1014.9 |
| 20260503195124 | 55 | 8 | 1.0 | 2.0 | 0.00 | 0.19 | 0.19 | 88 | 1015.0 |
| 20260503195003 | 55 | 9 | 0.0 | 2.0 | 0.00 | 0.19 | 0.19 | 88 | 1015.1 |
| 20260503194903 | 55 | 8 | 0.0 | 2.0 | 0.00 | 0.19 | 0.19 | 88 | 1015.1 |
| 20260503194824 | 55 | 7 | 0.0 | 2.0 | 0.00 | 0.19 | 0.19 | 88 | 1015.0 |
| 20260503194703 | 55 | 10 | 1.0 | 2.0 | 0.00 | 0.19 | 0.19 | 88 | 1014.8 |
| 20260503194603 | 55 | 10 | 1.0 | 2.0 | 0.00 | 0.19 | 0.19 | 88 | 1015.1 |
| 20260503194503 | 55 | 11 | 1.0 | 2.0 | 0.00 | 0.19 | 0.19 | 88 | 1014.9 |
| 20260503194424 | 55 | 12 | 1.0 | 2.0 | 0.00 | 0.19 | 0.19 | 88 | 1015.0 |
| 20260503194303 | 55 | 13 | 1.0 | 2.0 | 0.00 | 0.19 | 0.19 | 88 | 1014.9 |
| 20260503194203 | 55 | 13 | 1.0 | 2.0 | 0.00 | 0.19 | 0.19 | 88 | 1015.0 |
| 20260503194103 | 55 | 13 | 1.0 | 2.0 | 0.00 | 0.19 | 0.19 | 88 | 1014.9 |
| 20260503194024 | 55 | 13 | 1.0 | 2.0 | 0.00 | 0.20 | 0.19 | 88 | 1014.9 |
| 20260503193903 | 55 | 13 | 1.0 | 2.0 | 0.00 | 0.20 | 0.19 | 89 | 1014.9 |
| 20260503193803 | 55 | 15 | 1.0 | 2.0 | 0.00 | 0.20 | 0.19 | 89 | 1014.9 |
| 20260503193703 | 55 | 14 | 1.0 | 2.0 | 0.00 | 0.21 | 0.19 | 89 | 1014.7 |
| 20260503193603 | 55 | 15 | 1.0 | 2.0 | 0.00 | 0.21 | 0.19 | 89 | 1014.9 |
| 20260503193503 | 55 | 15 | 1.0 | 2.0 | 0.00 | 0.22 | 0.19 | 89 | 1014.9 |
| 20260503193424 | 55 | 15 | 1.0 | 2.0 | 0.00 | 0.22 | 0.19 | 89 | 1014.8 |
| 20260503193324 | 55 | 16 | 1.0 | 2.0 | 0.00 | 0.22 | 0.19 | 89 | 1014.8 |
| 20260503193224 | 55 | 16 | 1.0 | 2.0 | 0.00 | 0.23 | 0.19 | 89 | 1014.6 |
| 20260503193103 | 55 | 17 | 1.0 | 2.0 | 0.00 | 0.24 | 0.19 | 89 | 1014.9 |
| 20260503193003 | 55 | 18 | 1.0 | 2.0 | 0.00 | 0.24 | 0.19 | 89 | 1014.8 |
| 20260503192903 | 55 | 18 | 1.0 | 2.0 | 0.00 | 0.25 | 0.19 | 89 | 1014.8 |
| 20260503192824 | 55 | 19 | 1.0 | 2.0 | 0.00 | 0.25 | 0.19 | 89 | 1014.9 |
| 20260503192724 | 55 | 19 | 1.0 | 2.0 | 0.00 | 0.25 | 0.19 | 89 | 1014.8 |
| 20260503192603 | 55 | 20 | 1.0 | 2.0 | 0.00 | 0.25 | 0.19 | 89 | 1014.9 |
| 20260503192503 | 55 | 21 | 1.0 | 2.0 | 0.00 | 0.25 | 0.19 | 89 | 1014.7 |
| 20260503192403 | 55 | 21 | 1.0 | 3.0 | 0.00 | 0.25 | 0.19 | 89 | 1014.8 |
| 20260503192305 | 55 | 20 | 1.0 | 3.0 | 0.00 | 0.26 | 0.19 | 88 | 1014.7 |
| 20260503192203 | 55 | 17 | 1.0 | 3.0 | 0.00 | 0.26 | 0.19 | 88 | 1014.7 |
| 20260503192103 | 55 | 15 | 1.0 | 3.0 | 0.00 | 0.27 | 0.19 | 88 | 1014.6 |
| 20260503192003 | 55 | 14 | 1.0 | 3.0 | 0.00 | 0.27 | 0.19 | 88 | 1014.7 |
| 20260503191924 | 55 | 14 | 1.0 | 3.0 | 0.00 | 0.28 | 0.19 | 88 | 1014.7 |
| 20260503191803 | 55 | 14 | 1.0 | 3.0 | 0.00 | 0.28 | 0.19 | 88 | 1014.7 |
| 20260503191703 | 55 | 12 | 1.0 | 3.0 | 0.00 | 0.29 | 0.19 | 88 | 1014.7 |
| 20260503191624 | 55 | 9 | 1.0 | 3.0 | 0.00 | 0.29 | 0.19 | 88 | 1014.9 |
| 20260503191524 | 55 | 9 | 2.0 | 3.0 | 0.00 | 0.30 | 0.19 | 88 | 1014.7 |
| 20260503191403 | 55 | 9 | 2.0 | 3.0 | 0.00 | 0.30 | 0.19 | 88 | 1014.6 |
| 20260503191303 | 55 | 6 | 2.0 | 3.0 | 0.00 | 0.33 | 0.19 | 88 | 1014.6 |
| 20260503191203 | 55 | 7 | 2.0 | 3.0 | 0.00 | 0.33 | 0.19 | 88 | 1014.5 |
| 20260503191103 | 55 | 7 | 2.0 | 3.0 | 0.00 | 0.35 | 0.19 | 87 | 1014.6 |
| 20260503191003 | 55 | 8 | 2.0 | 3.0 | 0.00 | 0.35 | 0.19 | 87 | 1014.7 |
| 20260503190903 | 55 | 7 | 2.0 | 3.0 | 0.00 | 0.36 | 0.19 | 87 | 1014.6 |
| 20260503190803 | 55 | 7 | 1.0 | 3.0 | 0.00 | 0.38 | 0.19 | 87 | 1014.6 |
| 20260503190703 | 55 | 8 | 2.0 | 3.0 | 0.00 | 0.38 | 0.19 | 87 | 1014.6 |
| 20260503190603 | 55 | 9 | 1.0 | 2.0 | 0.00 | 0.39 | 0.19 | 87 | 1014.6 |
| 20260503190503 | 56 | 9 | 1.0 | 2.0 | 0.00 | 0.41 | 0.19 | 87 | 1014.5 |
| 20260503190403 | 56 | 9 | 1.0 | 2.0 | 0.00 | 0.41 | 0.19 | 86 | 1014.6 |
| 20260503190303 | 56 | 10 | 1.0 | 2.0 | 0.00 | 0.42 | 0.19 | 86 | 1014.7 |
| 20260503190203 | 56 | 10 | 1.0 | 2.0 | 0.00 | 0.43 | 0.19 | 86 | 1014.7 |
| 20260503190103 | 56 | 10 | 1.0 | 2.0 | 0.00 | 0.44 | 0.19 | 86 | 1014.5 |
| 20260503190003 | 56 | 10 | 1.0 | 2.0 | 0.00 | 0.45 | 0.19 | 86 | 1014.5 |
| 20260503185903 | 56 | 9 | 1.0 | 2.0 | 0.00 | 0.46 | 0.19 | 86 | 1014.4 |
| 20260503185803 | 56 | 9 | 1.0 | 3.0 | 0.00 | 0.46 | 0.19 | 86 | 1014.6 |
| 20260503185703 | 56 | 9 | 1.0 | 3.0 | 0.00 | 0.47 | 0.19 | 86 | 1014.7 |
| 20260503185603 | 56 | 8 | 1.0 | 3.0 | 0.00 | 0.47 | 0.19 | 86 | 1014.5 |
| 20260503185503 | 56 | 7 | 1.0 | 3.0 | 0.00 | 0.49 | 0.19 | 86 | 1014.5 |
| 20260503185403 | 56 | 6 | 2.0 | 3.0 | 0.00 | 0.49 | 0.19 | 86 | 1014.5 |
| 20260503185304 | 56 | 5 | 2.0 | 3.0 | 0.00 | 0.50 | 0.19 | 86 | 1014.7 |
| 20260503185203 | 56 | 5 | 2.0 | 4.0 | 0.00 | 0.50 | 0.19 | 86 | 1014.6 |
| 20260503185103 | 56 | 5 | 2.0 | 4.0 | 0.00 | 0.50 | 0.19 | 86 | 1014.5 |
| 20260503185003 | 56 | 5 | 2.0 | 4.0 | 0.00 | 0.50 | 0.19 | 86 | 1014.7 |
| 20260503184903 | 56 | 5 | 2.0 | 4.0 | 0.00 | 0.50 | 0.19 | 86 | 1014.5 |
| 20260503184803 | 56 | 4 | 2.0 | 4.0 | 0.00 | 0.50 | 0.19 | 86 | 1014.5 |
| 20260503184703 | 56 | 4 | 2.0 | 4.0 | 0.00 | 0.50 | 0.19 | 86 | 1014.5 |
| 20260503184603 | 56 | 4 | 2.0 | 4.0 | 0.00 | 0.50 | 0.19 | 86 | 1014.7 |
| 20260503184503 | 56 | 4 | 2.0 | 4.0 | 0.00 | 0.50 | 0.19 | 86 | 1014.4 |
| 20260503184403 | 56 | 2 | 2.0 | 4.0 | 0.00 | 0.50 | 0.19 | 86 | 1014.6 |
| 20260503184303 | 56 | 5 | 2.0 | 4.0 | 0.00 | 0.51 | 0.19 | 86 | 1014.5 |
| 20260503184224 | 56 | 5 | 2.0 | 4.0 | 0.00 | 0.51 | 0.19 | 86 | 1014.6 |
| 20260503184103 | 56 | 5 | 2.0 | 4.0 | 0.00 | 0.51 | 0.19 | 86 | 1014.4 |
| 20260503184024 | 56 | 6 | 2.0 | 4.0 | 0.00 | 0.51 | 0.19 | 86 | 1014.6 |
| 20260503183903 | 56 | 4 | 2.0 | 4.0 | 0.00 | 0.51 | 0.19 | 86 | 1014.5 |
| 20260503183803 | 56 | 4 | 2.0 | 4.0 | 0.00 | 0.51 | 0.19 | 86 | 1014.5 |
| 20260503183703 | 56 | 5 | 2.0 | 4.0 | 0.00 | 0.51 | 0.19 | 86 | 1014.4 |
| 20260503183603 | 56 | 1 | 2.0 | 4.0 | 0.00 | 0.52 | 0.19 | 86 | 1014.6 |
| 20260503183524 | 56 | 1 | 2.0 | 4.0 | 0.00 | 0.52 | 0.19 | 86 | 1014.6 |
| 20260503183403 | 56 | 3 | 2.0 | 4.0 | 0.00 | 0.52 | 0.19 | 86 | 1014.6 |
| 20260503183303 | 56 | 2 | 2.0 | 4.0 | 0.00 | 0.52 | 0.19 | 86 | 1014.5 |
| 20260503183203 | 56 | 2 | 2.0 | 4.0 | 0.00 | 0.52 | 0.19 | 86 | 1014.5 |
| 20260503183103 | 56 | 1 | 2.0 | 4.0 | 0.00 | 0.52 | 0.19 | 86 | 1014.5 |
| 20260503183024 | 56 | 1 | 2.0 | 4.0 | 0.00 | 0.52 | 0.19 | 86 | 1014.5 |
| 20260503182903 | 56 | 359 | 2.0 | 4.0 | 0.00 | 0.52 | 0.19 | 86 | 1014.6 |
| 20260503182824 | 56 | 1 | 2.0 | 4.0 | 0.00 | 0.52 | 0.19 | 86 | 1014.7 |
| 20260503182703 | 56 | 1 | 2.0 | 4.0 | 0.00 | 0.52 | 0.19 | 86 | 1014.6 |
| 20260503182624 | 56 | 359 | 2.0 | 4.0 | 0.00 | 0.52 | 0.19 | 86 | 1014.4 |
| 20260503182503 | 56 | 5 | 2.0 | 4.0 | 0.00 | 0.52 | 0.19 | 86 | 1014.5 |
| 20260503182403 | 56 | 4 | 2.0 | 4.0 | 0.00 | 0.52 | 0.19 | 86 | 1014.6 |
| 20260503182305 | 56 | 7 | 2.0 | 4.0 | 0.00 | 0.52 | 0.19 | 86 | 1014.6 |
| 20260503182203 | 56 | 5 | 2.0 | 4.0 | 0.00 | 0.52 | 0.19 | 86 | 1014.5 |
| 20260503182103 | 56 | 6 | 2.0 | 4.0 | 0.00 | 0.52 | 0.19 | 86 | 1014.6 |
| 20260503182003 | 56 | 8 | 2.0 | 4.0 | 0.00 | 0.52 | 0.19 | 86 | 1014.5 |
| 20260503181903 | 56 | 8 | 2.0 | 4.0 | 0.00 | 0.52 | 0.19 | 86 | 1014.4 |
| 20260503181803 | 56 | 10 | 2.0 | 4.0 | 0.00 | 0.52 | 0.19 | 86 | 1014.6 |
| 20260503181703 | 56 | 11 | 2.0 | 4.0 | 0.00 | 0.52 | 0.19 | 86 | 1014.4 |
| 20260503181603 | 56 | 12 | 2.0 | 4.0 | 0.00 | 0.52 | 0.19 | 86 | 1014.6 |
| 20260503181504 | 56 | 11 | 2.0 | 4.0 | 0.00 | 0.52 | 0.19 | 86 | 1014.5 |
| 20260503181424 | 56 | 11 | 2.0 | 4.0 | 0.00 | 0.52 | 0.19 | 86 | 1014.5 |
| 20260503181303 | 57 | 9 | 2.0 | 4.0 | 0.00 | 0.52 | 0.19 | 86 | 1014.6 |
| 20260503181203 | 57 | 9 | 2.0 | 4.0 | 0.00 | 0.52 | 0.19 | 86 | 1014.6 |
| 20260503181103 | 57 | 10 | 2.0 | 3.0 | 0.00 | 0.52 | 0.19 | 86 | 1014.5 |
| 20260503181003 | 57 | 9 | 2.0 | 3.0 | 0.00 | 0.52 | 0.19 | 86 | 1014.5 |
| 20260503180903 | 56 | 8 | 1.0 | 3.0 | 0.00 | 0.52 | 0.19 | 86 | 1014.4 |
| 20260503180803 | 57 | 7 | 2.0 | 3.0 | 0.00 | 0.52 | 0.19 | 86 | 1014.5 |
| 20260503180703 | 57 | 5 | 2.0 | 3.0 | 0.00 | 0.52 | 0.19 | 86 | 1014.6 |
| 20260503180603 | 57 | 3 | 2.0 | 3.0 | 0.00 | 0.52 | 0.19 | 86 | 1014.4 |
| 20260503180524 | 57 | 4 | 2.0 | 3.0 | 0.00 | 0.52 | 0.19 | 86 | 1014.5 |
| 20260503180403 | 57 | 4 | 2.0 | 3.0 | 0.00 | 0.52 | 0.19 | 86 | 1014.4 |
| 20260503180303 | 57 | 4 | 2.0 | 3.0 | 0.00 | 0.52 | 0.19 | 86 | 1014.5 |
| 20260503180203 | 57 | 2 | 2.0 | 3.0 | 0.00 | 0.52 | 0.19 | 86 | 1014.5 |
| 20260503180103 | 57 | 2 | 2.0 | 3.0 | 0.00 | 0.52 | 0.19 | 86 | 1014.4 |
| 20260503180024 | 57 | 3 | 2.0 | 3.0 | 0.00 | 0.52 | 0.19 | 86 | 1014.5 |
| 20260503175903 | 57 | 3 | 2.0 | 4.0 | 0.00 | 0.52 | 0.19 | 85 | 1014.6 |
| 20260503175803 | 57 | 2 | 2.0 | 4.0 | 0.00 | 0.52 | 0.19 | 85 | 1014.4 |
| 20260503175703 | 57 | 360 | 2.0 | 4.0 | 0.00 | 0.52 | 0.19 | 85 | 1014.6 |
| 20260503175603 | 57 | 360 | 2.0 | 4.0 | 0.00 | 0.52 | 0.19 | 85 | 1014.6 |
| 20260503175503 | 57 | 360 | 2.0 | 4.0 | 0.00 | 0.52 | 0.19 | 85 | 1014.5 |
| 20260503175403 | 56 | 359 | 2.0 | 4.0 | 0.00 | 0.52 | 0.19 | 85 | 1014.3 |
| 20260503175304 | 56 | 359 | 2.0 | 4.0 | 0.00 | 0.52 | 0.19 | 85 | 1014.5 |
| 20260503175203 | 56 | 359 | 1.0 | 4.0 | 0.00 | 0.52 | 0.19 | 85 | 1014.6 |
| 20260503175103 | 57 | 359 | 1.0 | 4.0 | 0.00 | 0.52 | 0.19 | 85 | 1014.5 |
| 20260503175003 | 57 | 359 | 1.0 | 4.0 | 0.00 | 0.52 | 0.19 | 85 | 1014.5 |
| 20260503174903 | 57 | 358 | 1.0 | 4.0 | 0.00 | 0.52 | 0.19 | 85 | 1014.6 |
| 20260503174803 | 57 | 356 | 1.0 | 3.0 | 0.00 | 0.52 | 0.19 | 85 | 1014.4 |
| 20260503174724 | 57 | 358 | 1.0 | 3.0 | 0.00 | 0.52 | 0.19 | 85 | 1014.5 |
| 20260503174603 | 57 | 4 | 1.0 | 2.0 | 0.00 | 0.52 | 0.19 | 85 | 1014.4 |
| 20260503174503 | 57 | 3 | 1.0 | 2.0 | 0.00 | 0.52 | 0.19 | 85 | 1014.6 |
| 20260503174424 | 57 | 3 | 1.0 | 2.0 | 0.00 | 0.52 | 0.19 | 85 | 1014.6 |
| 20260503174303 | 57 | 2 | 1.0 | 3.0 | 0.00 | 0.52 | 0.19 | 84 | 1014.4 |
| 20260503174203 | 57 | 1 | 1.0 | 3.0 | 0.00 | 0.52 | 0.19 | 84 | 1014.4 |
| 20260503174103 | 57 | 1 | 1.0 | 3.0 | 0.00 | 0.52 | 0.19 | 84 | 1014.4 |
| 20260503174003 | 57 | 360 | 2.0 | 3.0 | 0.00 | 0.52 | 0.19 | 84 | 1014.5 |
| 20260503173903 | 57 | 360 | 2.0 | 3.0 | 0.00 | 0.52 | 0.19 | 84 | 1014.5 |
| 20260503173803 | 57 | 360 | 2.0 | 3.0 | 0.00 | 0.52 | 0.19 | 84 | 1014.3 |
| 20260503173703 | 57 | 360 | 2.0 | 3.0 | 0.00 | 0.52 | 0.19 | 83 | 1014.5 |
| 20260503173603 | 57 | 360 | 2.0 | 3.0 | 0.00 | 0.52 | 0.19 | 83 | 1014.5 |
| 20260503173503 | 57 | 359 | 2.0 | 4.0 | 0.00 | 0.52 | 0.19 | 83 | 1014.5 |
| 20260503173403 | 57 | 358 | 2.0 | 4.0 | 0.00 | 0.52 | 0.19 | 83 | 1014.5 |
| 20260503173303 | 57 | 358 | 2.0 | 4.0 | 0.00 | 0.52 | 0.19 | 83 | 1014.4 |
| 20260503173203 | 57 | 358 | 2.0 | 4.0 | 0.00 | 0.52 | 0.19 | 83 | 1014.4 |
| 20260503173103 | 57 | 357 | 2.0 | 4.0 | 0.00 | 0.52 | 0.19 | 82 | 1014.5 |
| 20260503173003 | 57 | 358 | 2.0 | 4.0 | 0.00 | 0.52 | 0.19 | 82 | 1014.6 |
| 20260503172924 | 58 | 357 | 2.0 | 4.0 | 0.00 | 0.52 | 0.19 | 82 | 1014.4 |
| 20260503172803 | 58 | 357 | 2.0 | 4.0 | 0.00 | 0.52 | 0.19 | 82 | 1014.6 |
| 20260503172703 | 58 | 357 | 2.0 | 4.0 | 0.00 | 0.52 | 0.19 | 82 | 1014.4 |
| 20260503172603 | 58 | 357 | 2.0 | 4.0 | 0.00 | 0.53 | 0.19 | 81 | 1014.5 |
| 20260503172503 | 58 | 358 | 2.0 | 4.0 | 0.00 | 0.53 | 0.19 | 81 | 1014.3 |
| 20260503172403 | 58 | 359 | 2.0 | 4.0 | 0.00 | 0.53 | 0.19 | 81 | 1014.4 |
| 20260503172305 | 58 | 359 | 2.0 | 4.0 | 0.00 | 0.53 | 0.19 | 81 | 1014.4 |
| 20260503172203 | 58 | 358 | 3.0 | 4.0 | 0.00 | 0.53 | 0.19 | 81 | 1014.5 |
| 20260503172103 | 58 | 358 | 3.0 | 4.0 | 0.00 | 0.53 | 0.19 | 81 | 1014.4 |
| 20260503172003 | 59 | 356 | 3.0 | 4.0 | 0.00 | 0.53 | 0.19 | 80 | 1014.2 |
| 20260503171924 | 59 | 356 | 3.0 | 4.0 | 0.00 | 0.53 | 0.19 | 80 | 1014.2 |
| 20260503171803 | 59 | 356 | 3.0 | 4.0 | 0.00 | 0.53 | 0.19 | 80 | 1014.4 |
| 20260503171703 | 59 | 356 | 3.0 | 6.0 | 0.00 | 0.54 | 0.19 | 80 | 1014.3 |
| 20260503171603 | 59 | 357 | 3.0 | 6.0 | 0.00 | 0.54 | 0.19 | 81 | 1014.4 |
| 20260503171503 | 59 | 358 | 3.0 | 6.0 | 0.00 | 0.54 | 0.19 | 81 | 1014.3 |
| 20260503171403 | 59 | 357 | 3.0 | 6.0 | 0.00 | 0.54 | 0.19 | 81 | 1014.2 |
| 20260503171324 | 59 | 357 | 3.0 | 6.0 | 0.00 | 0.54 | 0.19 | 81 | 1014.4 |
| 20260503171203 | 59 | 355 | 3.0 | 6.0 | 0.00 | 0.55 | 0.19 | 81 | 1014.3 |
| 20260503171103 | 59 | 355 | 3.0 | 6.0 | 0.00 | 0.55 | 0.19 | 81 | 1014.1 |
| 20260503171003 | 59 | 356 | 3.0 | 6.0 | 0.00 | 0.56 | 0.19 | 81 | 1014.3 |
| 20260503170903 | 59 | 357 | 3.0 | 6.0 | 0.00 | 0.56 | 0.19 | 81 | 1014.2 |
| 20260503170803 | 59 | 357 | 3.0 | 6.0 | 0.00 | 0.57 | 0.19 | 81 | 1014.3 |
| 20260503170703 | 59 | 357 | 3.0 | 6.0 | 0.00 | 0.57 | 0.19 | 81 | 1014.4 |
| 20260503170603 | 59 | 356 | 3.0 | 4.0 | 0.00 | 0.57 | 0.19 | 82 | 1014.3 |
| 20260503170503 | 59 | 354 | 3.0 | 4.0 | 0.00 | 0.58 | 0.19 | 83 | 1014.4 |
| 20260503170403 | 58 | 353 | 3.0 | 4.0 | 0.00 | 0.58 | 0.19 | 83 | 1014.2 |
| 20260503170303 | 58 | 353 | 3.0 | 4.0 | 0.00 | 0.59 | 0.19 | 83 | 1014.2 |
| 20260503170203 | 58 | 353 | 3.0 | 4.0 | 0.00 | 0.59 | 0.19 | 83 | 1014.3 |
| 20260503170124 | 58 | 353 | 3.0 | 4.0 | 0.00 | 0.60 | 0.19 | 83 | 1014.2 |
| 20260503160203 | 60 | 346 | 2.0 | 7.0 | 0.00 | 0.79 | 0.19 | 78 | 1013.9 |
| 20260503151003 | 63 | 333 | 2.0 | 6.0 | 0.00 | 0.80 | 0.19 | 76 | 1014.2 |
| 20260503150903 | 63 | 343 | 2.0 | 8.0 | 0.00 | 0.80 | 0.19 | 76 | 1014.2 |
| 20260503150803 | 63 | 353 | 2.0 | 8.0 | 0.00 | 0.80 | 0.19 | 79 | 1014.2 |
| 20260503150703 | 62 | 355 | 3.0 | 8.0 | 0.00 | 0.80 | 0.19 | 79 | 1014.1 |
| 20260503150603 | 62 | 357 | 3.0 | 8.0 | 0.00 | 0.80 | 0.19 | 79 | 1014.1 |
| 20260503150503 | 61 | 357 | 3.0 | 8.0 | 0.00 | 0.80 | 0.19 | 81 | 1014.2 |
| 20260503150403 | 61 | 2 | 3.0 | 8.0 | 0.00 | 0.80 | 0.19 | 81 | 1014.2 |
| 20260503150303 | 61 | 2 | 3.0 | 8.0 | 0.00 | 0.80 | 0.19 | 80 | 1014.3 |
| 20260503150203 | 60 | 1 | 3.0 | 8.0 | 0.00 | 0.80 | 0.19 | 80 | 1014.3 |
| 20260503140303 | 62 | 356 | 2.0 | 6.0 | 0.00 | 1.04 | 0.19 | 74 | 1014.3 |
| 20260503140203 | 62 | 350 | 3.0 | 6.0 | 0.00 | 1.04 | 0.19 | 76 | 1014.4 |
| 20260503140103 | 62 | 351 | 3.0 | 6.0 | 0.00 | 1.04 | 0.19 | 75 | 1014.4 |
| 20260503131403 | 59 | 359 | 2.0 | 4.0 | 0.00 | 1.04 | 0.19 | 83 | 1014.2 |
| 20260503131303 | 59 | 359 | 2.0 | 4.0 | 0.00 | 1.04 | 0.19 | 83 | 1014.2 |
| 20260503131224 | 59 | 359 | 2.0 | 4.0 | 0.00 | 1.04 | 0.19 | 83 | 1014.2 |
| 20260503131124 | 59 | 358 | 2.0 | 4.0 | 0.00 | 1.04 | 0.19 | 83 | 1014.2 |
| 20260503131003 | 60 | 359 | 2.0 | 4.0 | 0.00 | 1.04 | 0.19 | 84 | 1014.4 |
| 20260503130924 | 60 | 359 | 2.0 | 4.0 | 0.00 | 1.04 | 0.19 | 84 | 1014.4 |
| 20260503130803 | 59 | 357 | 2.0 | 4.0 | 0.00 | 1.04 | 0.19 | 85 | 1014.5 |
| 20260503130703 | 59 | 357 | 2.0 | 4.0 | 0.00 | 1.04 | 0.19 | 85 | 1014.5 |
| 20260503130603 | 59 | 358 | 2.0 | 4.0 | 0.00 | 1.04 | 0.19 | 85 | 1014.3 |
| 20260503130524 | 59 | 358 | 2.0 | 4.0 | 0.00 | 1.04 | 0.19 | 85 | 1014.4 |
| 20260503130403 | 59 | 359 | 2.0 | 4.0 | 0.00 | 1.04 | 0.19 | 84 | 1014.2 |
| 20260503130303 | 59 | 359 | 2.0 | 4.0 | 0.00 | 1.04 | 0.19 | 85 | 1014.4 |
| 20260503130203 | 59 | 358 | 2.0 | 4.0 | 0.00 | 1.04 | 0.19 | 85 | 1014.4 |
| 20260503130103 | 59 | 359 | 2.0 | 4.0 | 0.00 | 1.04 | 0.19 | 84 | 1014.3 |
| 20260503120203 | 58 | 3 | 1.0 | 2.0 | 0.00 | 1.04 | 0.19 | 89 | 1014.6 |
| 20260503110802 | 56 | 355 | 1.0 | 3.0 | 0.00 | 1.04 | 0.19 | 92 | 1014.8 |
| 20260503110703 | 56 | 355 | 1.0 | 3.0 | 0.00 | 1.04 | 0.19 | 93 | 1014.9 |
| 20260503110603 | 56 | 355 | 1.0 | 2.0 | 0.00 | 1.04 | 0.19 | 93 | 1014.8 |
| 20260503110503 | 56 | 356 | 1.0 | 1.0 | 0.00 | 1.04 | 0.19 | 93 | 1014.8 |
| 20260503110424 | 56 | 356 | 0.0 | 1.0 | 0.00 | 1.04 | 0.19 | 93 | 1014.6 |
| 20260503110303 | 56 | 357 | 0.0 | 1.0 | 0.00 | 1.04 | 0.19 | 94 | 1014.8 |
| 20260503110203 | 56 | 358 | 0.0 | 1.0 | 0.00 | 1.04 | 0.19 | 94 | 1014.7 |
| 20260503100203 | 56 | 8 | 2.0 | 4.0 | 0.00 | 1.04 | 0.19 | 99 | 1014.6 |
| 20260503090403 | 55 | 12 | 0.0 | 2.0 | 0.00 | 1.04 | 0.19 | 99 | 1014.4 |
| 20260503090303 | 55 | 12 | 0.0 | 2.0 | 0.00 | 1.04 | 0.19 | 99 | 1014.5 |
| 20260503090203 | 54 | 12 | 0.0 | 2.0 | 0.00 | 1.04 | 0.19 | 99 | 1014.5 |
| 20260503081603 | 54 | 24 | 0.0 | 1.0 | 0.01 | 1.05 | 0.19 | 99 | 1014.5 |
| 20260503081503 | 54 | 18 | 0.0 | 1.0 | 0.01 | 1.05 | 0.19 | 99 | 1014.6 |
| 20260503081403 | 54 | 18 | 0.0 | 1.0 | 0.01 | 1.05 | 0.19 | 99 | 1014.7 |
| 20260503081303 | 54 | 18 | 0.0 | 1.0 | 0.01 | 1.05 | 0.19 | 99 | 1014.6 |
| 20260503081203 | 54 | 20 | 0.0 | 1.0 | 0.01 | 1.05 | 0.19 | 99 | 1014.4 |
| 20260503081124 | 54 | 20 | 0.0 | 1.0 | 0.01 | 1.05 | 0.19 | 99 | 1014.4 |
| 20260503081003 | 54 | 20 | 0.0 | 1.0 | 0.01 | 1.05 | 0.19 | 99 | 1014.4 |
| 20260503080903 | 54 | 20 | 0.0 | 1.0 | 0.01 | 1.05 | 0.19 | 99 | 1014.7 |
| 20260503080824 | 54 | 20 | 0.0 | 1.0 | 0.01 | 1.05 | 0.19 | 99 | 1014.5 |
| 20260503080703 | 54 | 20 | 0.0 | 1.0 | 0.01 | 1.05 | 0.19 | 99 | 1014.5 |
| 20260503080603 | 54 | 20 | 0.0 | 1.0 | 0.01 | 1.05 | 0.19 | 99 | 1014.5 |
| 20260503080503 | 54 | 20 | 0.0 | 1.0 | 0.01 | 1.05 | 0.19 | 99 | 1014.4 |
| 20260503080424 | 54 | 20 | 0.0 | 1.0 | 0.01 | 1.05 | 0.19 | 99 | 1014.4 |
| 20260503080303 | 54 | 20 | 0.0 | 1.0 | 0.01 | 1.05 | 0.19 | 99 | 1014.6 |
| 20260503080203 | 54 | 20 | 0.0 | 1.0 | 0.01 | 1.05 | 0.19 | 99 | 1014.4 |
| 20260503072903 | 53 | 0 | 0.0 | 0.0 | 0.01 | 1.05 | 0.19 | 99 | 1014.3 |
| 20260503072824 | 53 | 0 | 0.0 | 0.0 | 0.01 | 1.05 | 0.19 | 99 | 1014.4 |
| 20260503072703 | 53 | 0 | 0.0 | 0.0 | 0.01 | 1.05 | 0.19 | 99 | 1014.4 |
| 20260503072624 | 53 | 0 | 0.0 | 0.0 | 0.01 | 1.05 | 0.19 | 99 | 1014.4 |
| 20260503072503 | 53 | 20 | 0.0 | 1.0 | 0.01 | 1.05 | 0.19 | 99 | 1014.4 |
| 20260503072403 | 53 | 20 | 0.0 | 1.0 | 0.01 | 1.05 | 0.19 | 99 | 1014.4 |
| 20260503072305 | 53 | 17 | 0.0 | 2.0 | 0.01 | 1.05 | 0.19 | 99 | 1014.3 |
| 20260503072203 | 53 | 17 | 0.0 | 2.0 | 0.01 | 1.05 | 0.19 | 99 | 1014.4 |
| 20260503072103 | 53 | 17 | 0.0 | 2.0 | 0.01 | 1.05 | 0.19 | 99 | 1014.2 |
| 20260503072024 | 53 | 17 | 1.0 | 2.0 | 0.01 | 1.05 | 0.19 | 99 | 1014.3 |
| 20260503071903 | 53 | 16 | 1.0 | 2.0 | 0.01 | 1.05 | 0.19 | 99 | 1014.3 |
| 20260503071803 | 53 | 19 | 1.0 | 2.0 | 0.01 | 1.05 | 0.19 | 99 | 1014.2 |
| 20260503071703 | 53 | 20 | 1.0 | 3.0 | 0.01 | 1.05 | 0.19 | 99 | 1014.3 |
| 20260503071603 | 53 | 19 | 1.0 | 3.0 | 0.00 | 1.04 | 0.18 | 99 | 1014.1 |
| 20260503071503 | 53 | 19 | 1.0 | 3.0 | 0.00 | 1.04 | 0.18 | 99 | 1014.2 |
| 20260503071403 | 53 | 17 | 1.0 | 3.0 | 0.00 | 1.04 | 0.18 | 99 | 1014.3 |
| 20260503071303 | 53 | 15 | 2.0 | 3.0 | 0.00 | 1.04 | 0.18 | 99 | 1014.2 |
| 20260503071203 | 53 | 16 | 1.0 | 3.0 | 0.00 | 1.04 | 0.18 | 99 | 1014.2 |
| 20260503071103 | 53 | 16 | 1.0 | 3.0 | 0.00 | 1.04 | 0.18 | 99 | 1014.2 |
| 20260503071003 | 53 | 17 | 1.0 | 3.0 | 0.00 | 1.04 | 0.18 | 99 | 1014.3 |
| 20260503070924 | 53 | 17 | 1.0 | 3.0 | 0.00 | 1.04 | 0.18 | 99 | 1014.3 |
| 20260503070824 | 53 | 19 | 1.0 | 3.0 | 0.00 | 1.04 | 0.18 | 99 | 1014.2 |
| 20260503070724 | 53 | 18 | 1.0 | 3.0 | 0.00 | 1.04 | 0.18 | 99 | 1014.3 |
| 20260503070624 | 53 | 17 | 1.0 | 2.0 | 0.00 | 1.04 | 0.18 | 99 | 1014.4 |
| 20260503070503 | 53 | 18 | 1.0 | 2.0 | 0.00 | 1.04 | 0.18 | 99 | 1014.3 |
| 20260503070403 | 53 | 18 | 1.0 | 2.0 | 0.00 | 1.04 | 0.18 | 99 | 1014.1 |
| 20260503070303 | 54 | 20 | 1.0 | 2.0 | 0.00 | 1.04 | 0.18 | 99 | 1014.2 |
| 20260503070224 | 54 | 29 | 0.0 | 1.0 | 0.00 | 1.04 | 0.18 | 99 | 1014.3 |
| 20260503060303 | 53 | 0 | 0.0 | 0.0 | 0.00 | 1.04 | 0.18 | 99 | 1014.0 |
| 20260503060203 | 53 | 0 | 0.0 | 0.0 | 0.00 | 1.04 | 0.18 | 99 | 1013.8 |
| 20260503060103 | 53 | 0 | 0.0 | 0.0 | 0.00 | 1.04 | 0.18 | 99 | 1014.0 |
| 20260503055103 | 53 | 0 | 0.0 | 0.0 | 0.00 | 1.04 | 0.18 | 99 | 1013.7 |
| 20260503055003 | 53 | 0 | 0.0 | 0.0 | 0.00 | 1.04 | 0.18 | 99 | 1013.7 |
| 20260503054903 | 53 | 0 | 0.0 | 0.0 | 0.00 | 1.04 | 0.18 | 99 | 1013.7 |
| 20260503054803 | 53 | 0 | 0.0 | 0.0 | 0.00 | 1.04 | 0.18 | 99 | 1013.7 |
| 20260503054703 | 53 | 0 | 0.0 | 0.0 | 0.00 | 1.04 | 0.18 | 99 | 1013.8 |
| 20260503054603 | 53 | 0 | 0.0 | 0.0 | 0.00 | 1.04 | 0.18 | 99 | 1013.9 |
| 20260503054503 | 53 | 0 | 0.0 | 0.0 | 0.00 | 1.04 | 0.18 | 99 | 1013.7 |
| 20260503054403 | 53 | 0 | 0.0 | 0.0 | 0.00 | 1.04 | 0.18 | 99 | 1013.6 |
| 20260503054324 | 53 | 0 | 0.0 | 0.0 | 0.00 | 1.04 | 0.18 | 99 | 1013.9 |
| 20260503054203 | 53 | 0 | 0.0 | 0.0 | 0.00 | 1.04 | 0.18 | 99 | 1013.8 |
| 20260503054103 | 53 | 0 | 0.0 | 0.0 | 0.00 | 1.04 | 0.18 | 99 | 1013.7 |
| 20260503054003 | 53 | 0 | 0.0 | 0.0 | 0.00 | 1.04 | 0.18 | 99 | 1013.7 |
| 20260503053924 | 53 | 0 | 0.0 | 0.0 | 0.00 | 1.04 | 0.18 | 99 | 1013.7 |
| 20260503053824 | 53 | 0 | 0.0 | 0.0 | 0.00 | 1.04 | 0.18 | 99 | 1013.7 |
| 20260503053703 | 53 | 0 | 0.0 | 0.0 | 0.00 | 1.04 | 0.18 | 99 | 1013.8 |
| 20260503053603 | 53 | 0 | 0.0 | 0.0 | 0.00 | 1.04 | 0.18 | 99 | 1013.8 |
| 20260503053503 | 53 | 0 | 0.0 | 0.0 | 0.00 | 1.04 | 0.18 | 99 | 1013.7 |
| 20260503053424 | 53 | 0 | 0.0 | 0.0 | 0.00 | 1.04 | 0.18 | 99 | 1013.7 |
| 20260503053324 | 53 | 0 | 0.0 | 0.0 | 0.00 | 1.04 | 0.18 | 99 | 1013.6 |
| 20260503053203 | 53 | 40 | 0.0 | 1.0 | 0.00 | 1.04 | 0.18 | 99 | 1013.6 |
| 20260503053103 | 53 | 40 | 0.0 | 1.0 | 0.00 | 1.04 | 0.18 | 99 | 1013.8 |
| 20260503053003 | 53 | 40 | 0.0 | 1.0 | 0.00 | 1.04 | 0.18 | 99 | 1013.6 |
| 20260503052903 | 53 | 40 | 0.0 | 1.0 | 0.00 | 1.04 | 0.18 | 99 | 1013.7 |
| 20260503052824 | 53 | 40 | 0.0 | 1.0 | 0.00 | 1.04 | 0.18 | 99 | 1013.7 |
| 20260503052703 | 53 | 40 | 0.0 | 1.0 | 0.00 | 1.04 | 0.18 | 99 | 1013.7 |
| 20260503052603 | 53 | 40 | 0.0 | 1.0 | 0.00 | 1.04 | 0.18 | 99 | 1013.7 |
| 20260503052503 | 53 | 39 | 0.0 | 1.0 | 0.00 | 1.04 | 0.18 | 99 | 1013.7 |
| 20260503052403 | 53 | 39 | 0.0 | 1.0 | 0.00 | 1.04 | 0.18 | 99 | 1013.7 |
| 20260503052305 | 53 | 39 | 0.0 | 1.0 | 0.00 | 1.04 | 0.18 | 99 | 1013.7 |
| 20260503052203 | 53 | 37 | 0.0 | 1.0 | 0.00 | 1.04 | 0.18 | 99 | 1013.8 |
| 20260503052103 | 53 | 37 | 0.0 | 1.0 | 0.00 | 1.04 | 0.18 | 99 | 1013.8 |
| 20260503052003 | 53 | 36 | 0.0 | 1.0 | 0.00 | 1.04 | 0.18 | 99 | 1013.6 |
| 20260503051924 | 53 | 36 | 0.0 | 1.0 | 0.00 | 1.04 | 0.18 | 99 | 1013.6 |
| 20260503051803 | 53 | 36 | 0.0 | 1.0 | 0.00 | 1.04 | 0.18 | 99 | 1013.7 |
| 20260503051703 | 53 | 36 | 0.0 | 1.0 | 0.00 | 1.04 | 0.18 | 99 | 1013.7 |
| 20260503051624 | 53 | 36 | 0.0 | 1.0 | 0.00 | 1.04 | 0.18 | 99 | 1013.6 |
| 20260503051503 | 53 | 35 | 0.0 | 1.0 | 0.00 | 1.04 | 0.18 | 99 | 1013.7 |
| 20260503051403 | 53 | 33 | 0.0 | 1.0 | 0.00 | 1.04 | 0.18 | 99 | 1013.7 |
| 20260503051303 | 53 | 33 | 0.0 | 1.0 | 0.00 | 1.04 | 0.18 | 99 | 1013.7 |
| 20260503051203 | 53 | 31 | 0.0 | 1.0 | 0.00 | 1.04 | 0.18 | 99 | 1013.6 |
| 20260503051124 | 53 | 0 | 0.0 | 0.0 | 0.00 | 1.04 | 0.18 | 99 | 1013.7 |
| 20260503051003 | 53 | 0 | 0.0 | 0.0 | 0.00 | 1.04 | 0.18 | 99 | 1013.6 |
| 20260503050903 | 53 | 0 | 0.0 | 0.0 | 0.00 | 1.04 | 0.18 | 99 | 1013.6 |
| 20260503050803 | 53 | 0 | 0.0 | 0.0 | 0.00 | 1.04 | 0.18 | 99 | 1013.8 |
| 20260503050703 | 53 | 0 | 0.0 | 0.0 | 0.00 | 1.04 | 0.18 | 99 | 1013.6 |
| 20260503050603 | 53 | 0 | 0.0 | 0.0 | 0.00 | 1.04 | 0.18 | 99 | 1013.8 |
| 20260503050524 | 53 | 0 | 0.0 | 0.0 | 0.00 | 1.04 | 0.18 | 99 | 1013.8 |
| 20260503050403 | 53 | 0 | 0.0 | 0.0 | 0.00 | 1.04 | 0.18 | 99 | 1013.7 |
| 20260503050324 | 53 | 0 | 0.0 | 0.0 | 0.00 | 1.04 | 0.18 | 99 | 1013.7 |
| 20260503050203 | 53 | 0 | 0.0 | 0.0 | 0.00 | 1.04 | 0.18 | 99 | 1013.7 |
| 20260503050024 | 53 | 0 | 0.0 | 0.0 | 0.00 | 1.04 | 0.18 | 99 | 1013.6 |
| 20260503045903 | 53 | 0 | 0.0 | 0.0 | 0.00 | 1.04 | 0.18 | 99 | 1013.6 |
| 20260503045803 | 53 | 0 | 0.0 | 0.0 | 0.00 | 1.04 | 0.18 | 99 | 1013.5 |
| 20260503045703 | 53 | 0 | 0.0 | 0.0 | 0.00 | 1.04 | 0.18 | 99 | 1013.7 |
| 20260503045603 | 53 | 0 | 0.0 | 0.0 | 0.00 | 1.04 | 0.18 | 99 | 1013.5 |
| 20260503045524 | 53 | 0 | 0.0 | 0.0 | 0.00 | 1.04 | 0.18 | 99 | 1013.6 |
| 20260503045403 | 53 | 0 | 0.0 | 0.0 | 0.00 | 1.04 | 0.18 | 99 | 1013.6 |
| 20260503045305 | 53 | 0 | 0.0 | 0.0 | 0.00 | 1.04 | 0.18 | 99 | 1013.6 |
| 20260503045203 | 53 | 0 | 0.0 | 0.0 | 0.00 | 1.04 | 0.18 | 99 | 1013.5 |
| 20260503045103 | 53 | 0 | 0.0 | 0.0 | 0.00 | 1.04 | 0.18 | 99 | 1013.6 |
| 20260503045003 | 53 | 0 | 0.0 | 0.0 | 0.00 | 1.04 | 0.18 | 99 | 1013.6 |
| 20260503044903 | 53 | 31 | 0.0 | 1.0 | 0.00 | 1.04 | 0.18 | 99 | 1013.7 |
| 20260503044803 | 53 | 31 | 0.0 | 1.0 | 0.00 | 1.04 | 0.18 | 99 | 1013.6 |
| 20260503044703 | 53 | 31 | 0.0 | 1.0 | 0.00 | 1.04 | 0.18 | 99 | 1013.6 |
| 20260503044603 | 53 | 31 | 0.0 | 1.0 | 0.00 | 1.04 | 0.18 | 99 | 1013.7 |
| 20260503044524 | 53 | 31 | 0.0 | 1.0 | 0.00 | 1.04 | 0.18 | 99 | 1013.4 |
| 20260503044403 | 53 | 31 | 0.0 | 1.0 | 0.00 | 1.04 | 0.18 | 99 | 1013.6 |
| 20260503044303 | 53 | 31 | 0.0 | 1.0 | 0.00 | 1.04 | 0.18 | 99 | 1013.7 |
| 20260503044203 | 53 | 31 | 0.0 | 1.0 | 0.00 | 1.04 | 0.18 | 99 | 1013.6 |
| 20260503044103 | 53 | 31 | 0.0 | 1.0 | 0.00 | 1.04 | 0.18 | 99 | 1013.7 |
| 20260503044003 | 53 | 31 | 0.0 | 1.0 | 0.00 | 1.04 | 0.18 | 99 | 1013.7 |
| 20260503043903 | 53 | 31 | 0.0 | 1.0 | 0.00 | 1.04 | 0.18 | 99 | 1013.8 |
| 20260503043803 | 53 | 0 | 0.0 | 0.0 | 0.00 | 1.04 | 0.18 | 99 | 1013.7 |
| 20260503043703 | 53 | 0 | 0.0 | 0.0 | 0.00 | 1.04 | 0.18 | 99 | 1013.8 |
| 20260503043603 | 53 | 0 | 0.0 | 0.0 | 0.00 | 1.04 | 0.18 | 99 | 1013.6 |
| 20260503043503 | 53 | 0 | 0.0 | 0.0 | 0.00 | 1.04 | 0.18 | 99 | 1013.5 |
| 20260503043424 | 53 | 0 | 0.0 | 0.0 | 0.00 | 1.04 | 0.18 | 99 | 1013.6 |
| 20260503043303 | 53 | 0 | 0.0 | 0.0 | 0.00 | 1.04 | 0.18 | 99 | 1013.6 |
| 20260503043224 | 53 | 0 | 0.0 | 0.0 | 0.00 | 1.04 | 0.18 | 99 | 1013.6 |
| 20260503043103 | 53 | 0 | 0.0 | 0.0 | 0.00 | 1.04 | 0.18 | 99 | 1013.7 |
| 20260503043003 | 53 | 0 | 0.0 | 0.0 | 0.00 | 1.04 | 0.18 | 99 | 1013.8 |
| 20260503042903 | 53 | 0 | 0.0 | 0.0 | 0.00 | 1.04 | 0.18 | 99 | 1013.7 |
| 20260503042803 | 53 | 0 | 0.0 | 0.0 | 0.00 | 1.04 | 0.18 | 99 | 1013.6 |
| 20260503042703 | 53 | 0 | 0.0 | 0.0 | 0.00 | 1.04 | 0.18 | 99 | 1013.6 |
| 20260503042603 | 53 | 0 | 0.0 | 0.0 | 0.00 | 1.04 | 0.18 | 99 | 1013.6 |
| 20260503042503 | 53 | 0 | 0.0 | 0.0 | 0.00 | 1.04 | 0.18 | 99 | 1013.6 |
| 20260503042424 | 53 | 0 | 0.0 | 0.0 | 0.00 | 1.04 | 0.18 | 99 | 1013.7 |
| 20260503042324 | 53 | 0 | 0.0 | 0.0 | 0.00 | 1.04 | 0.18 | 99 | 1013.7 |
| 20260503042203 | 53 | 0 | 0.0 | 0.0 | 0.00 | 1.04 | 0.18 | 99 | 1013.7 |
| 20260503042103 | 53 | 0 | 0.0 | 0.0 | 0.00 | 1.04 | 0.18 | 99 | 1013.7 |
| 20260503042003 | 53 | 0 | 0.0 | 0.0 | 0.00 | 1.04 | 0.18 | 99 | 1013.6 |
| 20260503041924 | 53 | 0 | 0.0 | 0.0 | 0.00 | 1.04 | 0.18 | 99 | 1013.7 |
| 20260503041803 | 53 | 0 | 0.0 | 0.0 | 0.00 | 1.04 | 0.18 | 99 | 1013.8 |
| 20260503041703 | 53 | 0 | 0.0 | 0.0 | 0.00 | 1.04 | 0.18 | 99 | 1013.7 |
| 20260503041603 | 53 | 0 | 0.0 | 0.0 | 0.00 | 1.04 | 0.18 | 99 | 1013.8 |
| 20260503041524 | 53 | 0 | 0.0 | 0.0 | 0.00 | 1.04 | 0.18 | 99 | 1013.7 |
| 20260503041403 | 53 | 0 | 0.0 | 0.0 | 0.00 | 1.04 | 0.18 | 99 | 1013.6 |
| 20260503041303 | 53 | 0 | 0.0 | 0.0 | 0.00 | 1.04 | 0.18 | 99 | 1013.7 |
| 20260503041203 | 53 | 0 | 0.0 | 0.0 | 0.00 | 1.04 | 0.18 | 99 | 1013.7 |
| 20260503041103 | 53 | 0 | 0.0 | 0.0 | 0.01 | 1.04 | 0.18 | 99 | 1013.6 |
| 20260503041003 | 53 | 0 | 0.0 | 0.0 | 0.01 | 1.04 | 0.18 | 99 | 1013.7 |
| 20260503040903 | 53 | 0 | 0.0 | 0.0 | 0.01 | 1.04 | 0.18 | 99 | 1013.8 |
| 20260503040803 | 53 | 0 | 0.0 | 0.0 | 0.01 | 1.04 | 0.18 | 99 | 1013.7 |
| 20260503040703 | 54 | 0 | 0.0 | 0.0 | 0.01 | 1.04 | 0.18 | 99 | 1013.8 |
| 20260503040603 | 54 | 0 | 0.0 | 0.0 | 0.01 | 1.04 | 0.18 | 99 | 1013.7 |
| 20260503040503 | 54 | 0 | 0.0 | 0.0 | 0.01 | 1.04 | 0.18 | 99 | 1013.8 |
| 20260503040403 | 54 | 0 | 0.0 | 0.0 | 0.01 | 1.04 | 0.18 | 99 | 1013.7 |
| 20260503040303 | 54 | 0 | 0.0 | 0.0 | 0.01 | 1.04 | 0.18 | 99 | 1013.7 |
| 20260503040203 | 54 | 0 | 0.0 | 0.0 | 0.01 | 1.04 | 0.18 | 99 | 1013.7 |
| 20260503040103 | 54 | 0 | 0.0 | 0.0 | 0.01 | 1.04 | 0.18 | 99 | 1013.7 |
| 20260503040003 | 54 | 0 | 0.0 | 0.0 | 0.01 | 1.04 | 0.18 | 99 | 1013.7 |
| 20260503035903 | 54 | 0 | 0.0 | 0.0 | 0.01 | 1.04 | 0.18 | 99 | 1013.7 |
| 20260503035803 | 54 | 0 | 0.0 | 0.0 | 0.01 | 1.04 | 0.18 | 99 | 1013.6 |
| 20260503035703 | 54 | 0 | 0.0 | 0.0 | 0.01 | 1.04 | 0.18 | 99 | 1013.6 |
| 20260503035624 | 54 | 0 | 0.0 | 0.0 | 0.01 | 1.04 | 0.18 | 99 | 1013.6 |
| 20260503035503 | 54 | 0 | 0.0 | 0.0 | 0.01 | 1.04 | 0.18 | 99 | 1013.9 |
| 20260503035403 | 54 | 0 | 0.0 | 0.0 | 0.01 | 1.04 | 0.18 | 99 | 1013.7 |
| 20260503035304 | 54 | 0 | 0.0 | 0.0 | 0.01 | 1.04 | 0.18 | 99 | 1013.8 |
| 20260503035224 | 54 | 0 | 0.0 | 0.0 | 0.02 | 1.04 | 0.18 | 99 | 1013.8 |
| 20260503035103 | 54 | 0 | 0.0 | 0.0 | 0.02 | 1.04 | 0.18 | 99 | 1013.7 |
| 20260503035003 | 54 | 0 | 0.0 | 0.0 | 0.02 | 1.04 | 0.18 | 99 | 1014.0 |
| 20260503034924 | 54 | 0 | 0.0 | 0.0 | 0.02 | 1.04 | 0.18 | 99 | 1014.0 |
| 20260503034803 | 54 | 0 | 0.0 | 0.0 | 0.02 | 1.04 | 0.18 | 99 | 1013.9 |
| 20260503034703 | 54 | 0 | 0.0 | 0.0 | 0.02 | 1.04 | 0.18 | 99 | 1013.9 |
| 20260503034624 | 54 | 0 | 0.0 | 0.0 | 0.02 | 1.04 | 0.18 | 99 | 1013.9 |
| 20260503034503 | 54 | 0 | 0.0 | 0.0 | 0.02 | 1.04 | 0.18 | 99 | 1013.7 |
| 20260503034403 | 54 | 31 | 0.0 | 1.0 | 0.02 | 1.04 | 0.18 | 99 | 1013.9 |
| 20260503034303 | 54 | 31 | 0.0 | 1.0 | 0.03 | 1.04 | 0.18 | 99 | 1013.8 |
| 20260503034224 | 54 | 31 | 0.0 | 1.0 | 0.03 | 1.04 | 0.18 | 99 | 1013.8 |
| 20260503034103 | 54 | 31 | 0.0 | 1.0 | 0.03 | 1.04 | 0.18 | 99 | 1013.9 |
| 20260503034003 | 54 | 31 | 0.0 | 1.0 | 0.03 | 1.04 | 0.18 | 99 | 1013.8 |
| 20260503033924 | 54 | 31 | 0.0 | 1.0 | 0.03 | 1.04 | 0.18 | 99 | 1013.8 |
| 20260503033803 | 54 | 31 | 0.0 | 1.0 | 0.03 | 1.04 | 0.18 | 99 | 1013.9 |
| 20260503033703 | 54 | 31 | 0.0 | 1.0 | 0.03 | 1.04 | 0.18 | 99 | 1014.0 |
| 20260503033603 | 54 | 31 | 0.0 | 1.0 | 0.03 | 1.04 | 0.18 | 99 | 1014.1 |
| 20260503033524 | 54 | 31 | 0.0 | 1.0 | 0.03 | 1.04 | 0.18 | 99 | 1014.1 |
| 20260503033424 | 54 | 31 | 0.0 | 1.0 | 0.03 | 1.04 | 0.18 | 99 | 1014.1 |
| 20260503033303 | 54 | 0 | 0.0 | 0.0 | 0.03 | 1.04 | 0.18 | 99 | 1014.0 |
| 20260503033224 | 54 | 0 | 0.0 | 0.0 | 0.03 | 1.04 | 0.18 | 99 | 1014.0 |
| 20260503033103 | 54 | 35 | 0.0 | 1.0 | 0.03 | 1.04 | 0.18 | 99 | 1014.0 |
| 20260503033024 | 54 | 35 | 0.0 | 1.0 | 0.03 | 1.04 | 0.18 | 99 | 1013.9 |
| 20260503032903 | 54 | 35 | 0.0 | 1.0 | 0.03 | 1.04 | 0.18 | 99 | 1013.9 |
| 20260503032803 | 54 | 35 | 0.0 | 1.0 | 0.03 | 1.04 | 0.18 | 99 | 1014.0 |
| 20260503032724 | 54 | 35 | 0.0 | 1.0 | 0.03 | 1.04 | 0.18 | 99 | 1014.0 |
| 20260503032624 | 54 | 36 | 0.0 | 1.0 | 0.03 | 1.04 | 0.18 | 99 | 1014.0 |
| 20260503032503 | 54 | 34 | 0.0 | 1.0 | 0.03 | 1.04 | 0.18 | 99 | 1013.9 |
| 20260503032403 | 54 | 34 | 0.0 | 1.0 | 0.03 | 1.04 | 0.18 | 99 | 1014.1 |
| 20260503032304 | 54 | 34 | 0.0 | 1.0 | 0.03 | 1.04 | 0.18 | 99 | 1013.9 |
| 20260503032224 | 54 | 34 | 0.0 | 1.0 | 0.03 | 1.04 | 0.18 | 99 | 1013.8 |
| 20260503032103 | 54 | 33 | 0.0 | 1.0 | 0.03 | 1.04 | 0.18 | 99 | 1013.9 |
| 20260503032003 | 54 | 33 | 0.0 | 1.0 | 0.03 | 1.04 | 0.18 | 99 | 1014.1 |
| 20260503031903 | 54 | 33 | 0.0 | 1.0 | 0.03 | 1.04 | 0.18 | 99 | 1014.0 |
| 20260503031803 | 54 | 33 | 0.0 | 1.0 | 0.03 | 1.04 | 0.18 | 99 | 1014.0 |
| 20260503031703 | 54 | 33 | 0.0 | 1.0 | 0.03 | 1.04 | 0.18 | 99 | 1013.9 |